Wetterdaten: Dienstag, 28.07.2020
Datum Zeit Temp. Aussen Temp. o. S. Temp +5cm Feuchte Auss Luftdruck Regen Sonnenschein Regendauer Solar Windben Empfang
28.07.2020 00:00 23,2 C 20,0 C 20,0 C 61 % 1007,6 hPa 0,0 l/m 0 min 0 min 0 W/m 6,4 km/h (2 Bft) 97,83 %
28.07.2020 00:02 23,1 C 20,0 C 20,0 C 61 % 1007,6 hPa 0,0 l/m 0 min 0 min 0 W/m 3,2 km/h (1 Bft) 94,44 %
28.07.2020 00:04 22,9 C 20,0 C 19,4 C 62 % 1007,6 hPa 0,0 l/m 0 min 0 min 0 W/m 3,2 km/h (1 Bft) 100,00 %
28.07.2020 00:07 22,8 C 19,4 C 19,4 C 63 % 1007,6 hPa 0,0 l/m 0 min 0 min 0 W/m 6,4 km/h (2 Bft) 97,56 %
28.07.2020 00:08 22,7 C 19,4 C 19,4 C 63 % 1007,6 hPa 0,0 l/m 0 min 0 min 0 W/m 3,2 km/h (1 Bft) 100,00 %
28.07.2020 00:10 22,6 C 19,4 C 19,4 C 63 % 1007,6 hPa 0,0 l/m 0 min 0 min 0 W/m 3,2 km/h (1 Bft) 100,00 %
28.07.2020 00:12 22,5 C 19,4 C 19,4 C 64 % 1007,7 hPa 0,0 l/m 0 min 0 min 0 W/m 3,2 km/h (1 Bft) 97,83 %
28.07.2020 00:14 22,4 C 19,4 C 18,9 C 64 % 1007,7 hPa 0,0 l/m 0 min 0 min 0 W/m 3,2 km/h (1 Bft) 91,49 %
28.07.2020 00:16 22,3 C 19,4 C 18,9 C 64 % 1007,6 hPa 0,0 l/m 0 min 0 min 0 W/m 3,2 km/h (1 Bft) 97,87 %
28.07.2020 00:18 22,2 C 18,9 C 18,9 C 64 % 1007,6 hPa 0,0 l/m 0 min 0 min 0 W/m 6,4 km/h (2 Bft) 100,00 %
28.07.2020 00:20 22,2 C 18,9 C 18,9 C 65 % 1007,7 hPa 0,0 l/m 0 min 0 min 0 W/m 3,2 km/h (1 Bft) 97,87 %
28.07.2020 00:22 22,1 C 18,9 C 18,9 C 65 % 1007,7 hPa 0,0 l/m 0 min 0 min 0 W/m 3,2 km/h (1 Bft) 95,74 %
28.07.2020 00:24 22,0 C 18,9 C 18,9 C 65 % 1007,8 hPa 0,0 l/m 0 min 0 min 0 W/m 9,7 km/h (2 Bft) 100,00 %
28.07.2020 00:26 21,9 C 18,9 C 18,3 C 66 % 1007,9 hPa 0,0 l/m 0 min 0 min 0 W/m 6,4 km/h (2 Bft) 100,00 %
28.07.2020 00:28 21,8 C 18,9 C 18,3 C 66 % 1007,9 hPa 0,0 l/m 0 min 0 min 0 W/m 3,2 km/h (1 Bft) 100,00 %
28.07.2020 00:30 21,7 C 18,9 C 18,3 C 66 % 1007,8 hPa 0,0 l/m 0 min 0 min 0 W/m 3,2 km/h (1 Bft) 100,00 %
28.07.2020 00:32 21,6 C 18,3 C 18,3 C 66 % 1007,8 hPa 0,0 l/m 0 min 0 min 0 W/m 3,2 km/h (1 Bft) 100,00 %
28.07.2020 00:34 21,6 C 18,3 C 18,3 C 67 % 1007,8 hPa 0,0 l/m 0 min 0 min 0 W/m 3,2 km/h (1 Bft) 100,00 %
28.07.2020 00:36 21,4 C 18,3 C 18,3 C 67 % 1007,8 hPa 0,0 l/m 0 min 0 min 0 W/m 3,2 km/h (1 Bft) 100,00 %
28.07.2020 00:38 21,4 C 18,3 C 17,8 C 68 % 1007,8 hPa 0,0 l/m 0 min 0 min 0 W/m 0,0 km/h (0 Bft) 97,87 %
28.07.2020 00:40 21,3 C 18,3 C 17,8 C 68 % 1007,8 hPa 0,0 l/m 0 min 0 min 0 W/m 0,0 km/h (0 Bft) 100,00 %
28.07.2020 00:42 21,2 C 18,3 C 17,8 C 68 % 1007,9 hPa 0,0 l/m 0 min 0 min 0 W/m 0,0 km/h (0 Bft) 97,87 %
28.07.2020 00:44 21,1 C 17,8 C 17,8 C 69 % 1007,9 hPa 0,0 l/m 0 min 0 min 0 W/m 0,0 km/h (0 Bft) 100,00 %
28.07.2020 00:46 21,1 C 17,8 C 17,8 C 69 % 1007,9 hPa 0,0 l/m 0 min 0 min 0 W/m 3,2 km/h (1 Bft) 100,00 %
28.07.2020 00:48 21,0 C 17,8 C 17,8 C 69 % 1007,9 hPa 0,0 l/m 0 min 0 min 0 W/m 6,4 km/h (2 Bft) 97,87 %
28.07.2020 00:50 20,9 C 17,8 C 17,8 C 69 % 1008,0 hPa 0,0 l/m 0 min 0 min 0 W/m 3,2 km/h (1 Bft) 100,00 %
28.07.2020 00:52 20,8 C 17,8 C 17,8 C 69 % 1008,0 hPa 0,0 l/m 0 min 0 min 0 W/m 3,2 km/h (1 Bft) 100,00 %
28.07.2020 00:54 20,8 C 17,8 C 17,2 C 70 % 1008,0 hPa 0,0 l/m 0 min 0 min 0 W/m 0,0 km/h (0 Bft) 100,00 %
28.07.2020 00:56 20,7 C 17,8 C 17,2 C 70 % 1008,1 hPa 0,0 l/m 0 min 0 min 0 W/m 3,2 km/h (1 Bft) 100,00 %
28.07.2020 00:58 20,6 C 17,8 C 17,2 C 70 % 1008,1 hPa 0,0 l/m 0 min 0 min 0 W/m 3,2 km/h (1 Bft) 100,00 %
28.07.2020 01:00 20,5 C 17,8 C 17,2 C 70 % 1008,1 hPa 0,0 l/m 0 min 0 min 0 W/m 3,2 km/h (1 Bft) 100,00 %
28.07.2020 01:02 20,4 C 17,8 C 17,2 C 71 % 1008,1 hPa 0,0 l/m 0 min 0 min 0 W/m 3,2 km/h (1 Bft) 100,00 %
28.07.2020 01:04 20,4 C 17,8 C 17,2 C 71 % 1008,0 hPa 0,0 l/m 0 min 0 min 0 W/m 3,2 km/h (1 Bft) 96,00 %
28.07.2020 01:06 20,3 C 17,2 C 17,2 C 71 % 1008,1 hPa 0,0 l/m 0 min 0 min 0 W/m 0,0 km/h (0 Bft) 100,00 %
28.07.2020 01:08 20,2 C 17,2 C 17,2 C 71 % 1008,1 hPa 0,0 l/m 0 min 0 min 0 W/m 3,2 km/h (1 Bft) 100,00 %
28.07.2020 01:10 20,2 C 17,2 C 17,2 C 71 % 1008,0 hPa 0,0 l/m 0 min 0 min 0 W/m 0,0 km/h (0 Bft) 100,00 %
28.07.2020 01:12 20,1 C 17,2 C 17,2 C 71 % 1008,1 hPa 0,0 l/m 0 min 0 min 0 W/m 0,0 km/h (0 Bft) 97,87 %
28.07.2020 01:14 20,0 C 17,2 C 17,2 C 72 % 1008,2 hPa 0,0 l/m 0 min 0 min 0 W/m 0,0 km/h (0 Bft) 100,00 %
28.07.2020 01:16 19,9 C 17,2 C 17,2 C 72 % 1008,1 hPa 0,0 l/m 0 min 0 min 0 W/m 0,0 km/h (0 Bft) 100,00 %
28.07.2020 01:18 19,8 C 17,2 C 17,2 C 72 % 1008,1 hPa 0,0 l/m 0 min 0 min 0 W/m 0,0 km/h (0 Bft) 100,00 %
28.07.2020 01:20 19,8 C 17,2 C 17,2 C 72 % 1008,1 hPa 0,0 l/m 0 min 0 min 0 W/m 3,2 km/h (1 Bft) 100,00 %
28.07.2020 01:22 19,7 C 17,2 C 17,2 C 72 % 1008,2 hPa 0,0 l/m 0 min 0 min 0 W/m 3,2 km/h (1 Bft) 100,00 %
28.07.2020 01:24 19,6 C 17,2 C 17,2 C 72 % 1008,2 hPa 0,0 l/m 0 min 0 min 0 W/m 0,0 km/h (0 Bft) 93,62 %
28.07.2020 01:26 19,6 C 17,2 C 17,2 C 72 % 1008,2 hPa 0,0 l/m 0 min 0 min 0 W/m 0,0 km/h (0 Bft) 95,74 %
28.07.2020 01:28 19,5 C 17,2 C 17,2 C 73 % 1008,3 hPa 0,0 l/m 0 min 0 min 0 W/m 0,0 km/h (0 Bft) 95,74 %
28.07.2020 01:30 19,4 C 17,2 C 17,2 C 73 % 1008,3 hPa 0,0 l/m 0 min 0 min 0 W/m 3,2 km/h (1 Bft) 95,65 %
28.07.2020 01:32 19,4 C 17,2 C 17,2 C 73 % 1008,2 hPa 0,0 l/m 0 min 0 min 0 W/m 3,2 km/h (1 Bft) 95,74 %
28.07.2020 01:34 19,4 C 17,2 C 17,2 C 73 % 1008,3 hPa 0,0 l/m 0 min 0 min 0 W/m 3,2 km/h (1 Bft) 95,74 %
28.07.2020 01:36 19,3 C 17,2 C 17,2 C 73 % 1008,2 hPa 0,0 l/m 0 min 0 min 0 W/m 3,2 km/h (1 Bft) 95,74 %
28.07.2020 01:38 19,3 C 17,2 C 17,2 C 73 % 1008,2 hPa 0,0 l/m 0 min 0 min 0 W/m 3,2 km/h (1 Bft) 95,74 %
28.07.2020 01:40 19,2 C 17,2 C 17,2 C 73 % 1008,3 hPa 0,0 l/m 0 min 0 min 0 W/m 3,2 km/h (1 Bft) 95,74 %
28.07.2020 01:42 19,2 C 17,2 C 17,2 C 73 % 1008,3 hPa 0,0 l/m 0 min 0 min 0 W/m 3,2 km/h (1 Bft) 95,65 %
28.07.2020 01:44 19,1 C 17,2 C 17,2 C 73 % 1008,2 hPa 0,0 l/m 0 min 0 min 0 W/m 3,2 km/h (1 Bft) 95,74 %
28.07.2020 01:46 19,1 C 17,2 C 17,2 C 73 % 1008,3 hPa 0,0 l/m 0 min 0 min 0 W/m 0,0 km/h (0 Bft) 93,62 %
28.07.2020 01:48 19,1 C 17,2 C 16,7 C 74 % 1008,3 hPa 0,0 l/m 0 min 0 min 0 W/m 3,2 km/h (1 Bft) 93,62 %
28.07.2020 01:50 19,1 C 17,2 C 16,7 C 74 % 1008,2 hPa 0,0 l/m 0 min 0 min 0 W/m 3,2 km/h (1 Bft) 89,36 %
28.07.2020 01:52 19,0 C 17,2 C 16,7 C 74 % 1008,2 hPa 0,0 l/m 0 min 0 min 0 W/m 0,0 km/h (0 Bft) 68,09 %
28.07.2020 01:54 19,0 C 17,2 C 16,7 C 75 % 1008,3 hPa 0,0 l/m 0 min 0 min 0 W/m 3,2 km/h (1 Bft) 60,87 %
28.07.2020 01:56 18,9 C 17,2 C 16,7 C 75 % 1008,2 hPa 0,0 l/m 0 min 0 min 0 W/m 3,2 km/h (1 Bft) 91,49 %
28.07.2020 01:58 18,9 C 17,2 C 16,7 C 75 % 1008,3 hPa 0,0 l/m 0 min 0 min 0 W/m 3,2 km/h (1 Bft) 93,62 %
28.07.2020 02:00 18,9 C 17,2 C 16,7 C 75 % 1008,2 hPa 0,0 l/m 0 min 0 min 0 W/m 3,2 km/h (1 Bft) 93,62 %
28.07.2020 02:02 18,9 C 17,2 C 16,7 C 75 % 1008,3 hPa 0,0 l/m 0 min 0 min 0 W/m 3,2 km/h (1 Bft) 93,75 %
28.07.2020 02:04 18,8 C 17,2 C 16,7 C 76 % 1008,3 hPa 0,0 l/m 0 min 0 min 0 W/m 3,2 km/h (1 Bft) 93,62 %
28.07.2020 02:06 18,8 C 17,2 C 16,7 C 76 % 1008,3 hPa 0,0 l/m 0 min 0 min 0 W/m 3,2 km/h (1 Bft) 97,83 %
28.07.2020 02:08 18,8 C 17,8 C 16,7 C 76 % 1008,3 hPa 0,0 l/m 0 min 0 min 0 W/m 6,4 km/h (2 Bft) 93,62 %
28.07.2020 02:10 18,8 C 17,8 C 17,2 C 76 % 1008,3 hPa 0,0 l/m 0 min 0 min 0 W/m 3,2 km/h (1 Bft) 91,49 %
28.07.2020 02:12 18,8 C 17,8 C 17,2 C 76 % 1008,3 hPa 0,0 l/m 0 min 0 min 0 W/m 6,4 km/h (2 Bft) 93,62 %
28.07.2020 02:14 18,8 C 17,8 C 17,2 C 77 % 1008,3 hPa 0,0 l/m 0 min 0 min 0 W/m 9,7 km/h (2 Bft) 87,23 %
28.07.2020 02:16 18,8 C 17,8 C 17,8 C 77 % 1008,3 hPa 0,0 l/m 0 min 0 min 0 W/m 12,9 km/h (3 Bft) 87,23 %
28.07.2020 02:18 18,8 C 18,3 C 17,8 C 78 % 1008,3 hPa 0,0 l/m 0 min 0 min 0 W/m 12,9 km/h (3 Bft) 82,61 %
28.07.2020 02:20 18,8 C 18,3 C 17,8 C 78 % 1008,3 hPa 0,0 l/m 0 min 0 min 0 W/m 9,7 km/h (2 Bft) 87,23 %
28.07.2020 02:22 18,8 C 18,3 C 17,8 C 79 % 1008,4 hPa 0,0 l/m 0 min 0 min 0 W/m 12,9 km/h (3 Bft) 93,62 %
28.07.2020 02:24 18,9 C 18,3 C 18,3 C 79 % 1008,3 hPa 0,0 l/m 0 min 0 min 0 W/m 12,9 km/h (3 Bft) 95,74 %
28.07.2020 02:26 18,9 C 18,3 C 18,3 C 79 % 1008,3 hPa 0,0 l/m 0 min 0 min 0 W/m 6,4 km/h (2 Bft) 95,74 %
28.07.2020 02:28 18,9 C 18,3 C 18,3 C 79 % 1008,4 hPa 0,0 l/m 0 min 0 min 0 W/m 6,4 km/h (2 Bft) 97,83 %
28.07.2020 02:30 19,0 C 18,3 C 18,3 C 79 % 1008,3 hPa 0,0 l/m 0 min 0 min 0 W/m 16,1 km/h (3 Bft) 95,74 %
28.07.2020 02:32 19,1 C 18,3 C 18,3 C 79 % 1008,4 hPa 0,0 l/m 0 min 0 min 0 W/m 6,4 km/h (2 Bft) 97,22 %
28.07.2020 02:34 19,1 C 18,9 C 18,3 C 79 % 1008,4 hPa 0,0 l/m 0 min 0 min 0 W/m 9,7 km/h (2 Bft) 95,74 %
28.07.2020 02:36 19,1 C 18,3 C 18,3 C 79 % 1008,3 hPa 0,0 l/m 0 min 0 min 0 W/m 6,4 km/h (2 Bft) 95,74 %
28.07.2020 02:38 19,1 C 18,9 C 18,3 C 79 % 1008,4 hPa 0,0 l/m 0 min 0 min 0 W/m 6,4 km/h (2 Bft) 95,74 %
28.07.2020 02:40 19,2 C 18,9 C 18,3 C 79 % 1008,4 hPa 0,0 l/m 0 min 0 min 0 W/m 9,7 km/h (2 Bft) 91,49 %
28.07.2020 02:42 19,2 C 18,9 C 18,3 C 79 % 1008,4 hPa 0,0 l/m 0 min 0 min 0 W/m 12,9 km/h (3 Bft) 95,65 %
28.07.2020 02:44 19,3 C 18,9 C 18,3 C 79 % 1008,3 hPa 0,0 l/m 0 min 0 min 0 W/m 9,7 km/h (2 Bft) 97,87 %
28.07.2020 02:46 19,3 C 18,9 C 18,3 C 79 % 1008,4 hPa 0,0 l/m 0 min 0 min 0 W/m 16,1 km/h (3 Bft) 93,62 %
28.07.2020 02:48 19,3 C 18,9 C 18,3 C 79 % 1008,3 hPa 0,0 l/m 0 min 0 min 0 W/m 12,9 km/h (3 Bft) 97,87 %
28.07.2020 02:50 19,3 C 18,9 C 18,3 C 79 % 1008,3 hPa 0,0 l/m 0 min 0 min 0 W/m 9,7 km/h (2 Bft) 93,62 %
28.07.2020 02:52 19,4 C 18,9 C 18,3 C 79 % 1008,3 hPa 0,0 l/m 0 min 0 min 0 W/m 12,9 km/h (3 Bft) 97,87 %
28.07.2020 02:54 19,4 C 18,9 C 18,3 C 79 % 1008,3 hPa 0,0 l/m 0 min 0 min 0 W/m 6,4 km/h (2 Bft) 93,48 %
28.07.2020 02:56 19,4 C 18,9 C 18,3 C 79 % 1008,3 hPa 0,0 l/m 0 min 0 min 0 W/m 6,4 km/h (2 Bft) 95,74 %
28.07.2020 02:58 19,5 C 18,9 C 18,3 C 79 % 1008,3 hPa 0,0 l/m 0 min 0 min 0 W/m 6,4 km/h (2 Bft) 93,62 %
28.07.2020 03:00 19,6 C 18,9 C 18,9 C 79 % 1008,3 hPa 0,0 l/m 0 min 0 min 0 W/m 6,4 km/h (2 Bft) 97,87 %
28.07.2020 03:02 19,6 C 18,9 C 18,3 C 79 % 1008,2 hPa 0,0 l/m 0 min 0 min 0 W/m 9,7 km/h (2 Bft) 97,87 %
28.07.2020 03:04 19,6 C 18,9 C 18,3 C 79 % 1008,2 hPa 0,0 l/m 0 min 0 min 0 W/m 6,4 km/h (2 Bft) 97,87 %
28.07.2020 03:06 19,6 C 18,9 C 18,3 C 79 % 1008,3 hPa 0,0 l/m 0 min 0 min 0 W/m 6,4 km/h (2 Bft) 97,83 %
28.07.2020 03:08 19,6 C 18,9 C 18,3 C 79 % 1008,3 hPa 0,0 l/m 0 min 0 min 0 W/m 6,4 km/h (2 Bft) 97,87 %
28.07.2020 03:10 19,7 C 18,9 C 18,3 C 79 % 1008,3 hPa 0,0 l/m 0 min 0 min 0 W/m 9,7 km/h (2 Bft) 97,87 %
28.07.2020 03:12 19,7 C 18,9 C 18,3 C 79 % 1008,3 hPa 0,0 l/m 0 min 0 min 0 W/m 16,1 km/h (3 Bft) 97,87 %
28.07.2020 03:14 19,7 C 18,9 C 18,3 C 79 % 1008,4 hPa 0,0 l/m 0 min 0 min 0 W/m 12,9 km/h (3 Bft) 100,00 %
28.07.2020 03:16 19,7 C 18,9 C 18,3 C 79 % 1008,4 hPa 0,0 l/m 0 min 0 min 0 W/m 12,9 km/h (3 Bft) 97,87 %
28.07.2020 03:18 19,7 C 18,3 C 18,3 C 79 % 1008,4 hPa 0,0 l/m 0 min 0 min 0 W/m 12,9 km/h (3 Bft) 100,00 %
28.07.2020 03:20 19,7 C 18,3 C 18,3 C 78 % 1008,4 hPa 0,0 l/m 0 min 0 min 0 W/m 16,1 km/h (3 Bft) 97,87 %
28.07.2020 03:22 19,7 C 18,3 C 18,3 C 78 % 1008,3 hPa 0,0 l/m 0 min 0 min 0 W/m 12,9 km/h (3 Bft) 100,00 %
28.07.2020 03:24 19,7 C 18,3 C 18,3 C 78 % 1008,3 hPa 0,0 l/m 0 min 0 min 0 W/m 16,1 km/h (3 Bft) 100,00 %
28.07.2020 03:26 19,6 C 18,3 C 18,3 C 78 % 1008,3 hPa 0,0 l/m 0 min 0 min 0 W/m 12,9 km/h (3 Bft) 100,00 %
28.07.2020 03:28 19,6 C 18,3 C 17,8 C 77 % 1008,3 hPa 0,0 l/m 0 min 0 min 0 W/m 16,1 km/h (3 Bft) 97,87 %
28.07.2020 03:30 19,6 C 18,3 C 17,8 C 77 % 1008,2 hPa 0,0 l/m 0 min 0 min 0 W/m 6,4 km/h (2 Bft) 97,83 %
28.07.2020 03:32 19,6 C 18,3 C 17,8 C 77 % 1008,3 hPa 0,0 l/m 0 min 0 min 0 W/m 22,5 km/h (4 Bft) 100,00 %
28.07.2020 03:34 19,6 C 18,3 C 17,8 C 78 % 1008,3 hPa 0,0 l/m 0 min 0 min 0 W/m 9,7 km/h (2 Bft) 100,00 %
28.07.2020 03:36 19,5 C 17,8 C 17,8 C 78 % 1008,4 hPa 0,0 l/m 0 min 0 min 0 W/m 6,4 km/h (2 Bft) 100,00 %
28.07.2020 03:38 19,5 C 17,8 C 17,8 C 78 % 1008,3 hPa 0,0 l/m 0 min 0 min 0 W/m 6,4 km/h (2 Bft) 97,87 %
28.07.2020 03:40 19,5 C 17,8 C 17,8 C 78 % 1008,4 hPa 0,0 l/m 0 min 0 min 0 W/m 9,7 km/h (2 Bft) 97,83 %
28.07.2020 03:42 19,4 C 17,8 C 17,8 C 78 % 1008,4 hPa 0,0 l/m 0 min 0 min 0 W/m 12,9 km/h (3 Bft) 100,00 %
28.07.2020 03:44 19,4 C 17,8 C 17,8 C 79 % 1008,4 hPa 0,0 l/m 0 min 0 min 0 W/m 6,4 km/h (2 Bft) 100,00 %
28.07.2020 03:46 19,4 C 17,8 C 17,8 C 79 % 1008,4 hPa 0,0 l/m 0 min 0 min 0 W/m 9,7 km/h (2 Bft) 95,74 %
28.07.2020 03:48 19,3 C 17,8 C 17,8 C 79 % 1008,4 hPa 0,0 l/m 0 min 0 min 0 W/m 9,7 km/h (2 Bft) 97,87 %
28.07.2020 03:50 19,3 C 17,8 C 17,8 C 79 % 1008,4 hPa 0,0 l/m 0 min 0 min 0 W/m 6,4 km/h (2 Bft) 100,00 %
28.07.2020 03:52 19,3 C 17,8 C 17,8 C 79 % 1008,4 hPa 0,0 l/m 0 min 0 min 0 W/m 6,4 km/h (2 Bft) 100,00 %
28.07.2020 03:54 19,3 C 17,8 C 17,2 C 79 % 1008,5 hPa 0,0 l/m 0 min 0 min 0 W/m 6,4 km/h (2 Bft) 95,74 %
28.07.2020 03:56 19,3 C 17,8 C 17,8 C 79 % 1008,4 hPa 0,0 l/m 0 min 0 min 0 W/m 12,9 km/h (3 Bft) 100,00 %
28.07.2020 03:58 19,2 C 17,8 C 17,8 C 79 % 1008,5 hPa 0,0 l/m 0 min 0 min 0 W/m 12,9 km/h (3 Bft) 100,00 %
28.07.2020 04:00 19,2 C 17,8 C 17,8 C 79 % 1008,5 hPa 0,0 l/m 0 min 0 min 0 W/m 12,9 km/h (3 Bft) 100,00 %
28.07.2020 04:02 19,2 C 17,8 C 17,8 C 79 % 1008,7 hPa 0,0 l/m 0 min 0 min 0 W/m 6,4 km/h (2 Bft) 100,00 %
28.07.2020 04:04 19,2 C 18,3 C 17,8 C 79 % 1008,6 hPa 0,0 l/m 0 min 0 min 0 W/m 16,1 km/h (3 Bft) 100,00 %
28.07.2020 04:06 19,2 C 18,3 C 17,8 C 80 % 1008,6 hPa 0,0 l/m 0 min 0 min 0 W/m 9,7 km/h (2 Bft) 100,00 %
28.07.2020 04:08 19,1 C 17,8 C 17,8 C 80 % 1008,6 hPa 0,0 l/m 0 min 0 min 0 W/m 12,9 km/h (3 Bft) 97,87 %
28.07.2020 04:10 19,1 C 17,8 C 17,8 C 80 % 1008,6 hPa 0,0 l/m 0 min 0 min 0 W/m 12,9 km/h (3 Bft) 95,74 %
28.07.2020 04:12 19,1 C 17,8 C 17,8 C 80 % 1008,6 hPa 0,0 l/m 0 min 0 min 0 W/m 12,9 km/h (3 Bft) 91,49 %
28.07.2020 04:14 19,1 C 17,8 C 17,8 C 80 % 1008,6 hPa 0,0 l/m 0 min 0 min 0 W/m 6,4 km/h (2 Bft) 93,62 %
28.07.2020 04:16 19,1 C 17,8 C 17,8 C 80 % 1008,6 hPa 0,0 l/m 0 min 0 min 0 W/m 9,7 km/h (2 Bft) 93,48 %
28.07.2020 04:18 19,1 C 17,8 C 17,8 C 80 % 1008,6 hPa 0,0 l/m 0 min 0 min 0 W/m 16,1 km/h (3 Bft) 95,74 %
28.07.2020 04:20 19,1 C 17,8 C 17,8 C 80 % 1008,6 hPa 0,0 l/m 0 min 0 min 0 W/m 6,4 km/h (2 Bft) 93,62 %
28.07.2020 04:22 19,1 C 17,8 C 17,8 C 80 % 1008,6 hPa 0,0 l/m 0 min 0 min 0 W/m 12,9 km/h (3 Bft) 97,87 %
28.07.2020 04:24 19,1 C 17,8 C 17,8 C 80 % 1008,6 hPa 0,0 l/m 0 min 0 min 0 W/m 6,4 km/h (2 Bft) 95,74 %
28.07.2020 04:26 19,1 C 17,8 C 17,8 C 80 % 1008,7 hPa 0,0 l/m 0 min 0 min 0 W/m 12,9 km/h (3 Bft) 93,48 %
28.07.2020 04:28 19,0 C 17,8 C 17,8 C 80 % 1008,8 hPa 0,0 l/m 0 min 0 min 0 W/m 9,7 km/h (2 Bft) 95,74 %
28.07.2020 04:30 19,0 C 17,8 C 17,8 C 81 % 1008,8 hPa 0,0 l/m 0 min 0 min 0 W/m 25,7 km/h (4 Bft) 93,62 %
28.07.2020 04:32 19,0 C 17,8 C 17,8 C 81 % 1008,8 hPa 0,0 l/m 0 min 0 min 0 W/m 12,9 km/h (3 Bft) 95,74 %
28.07.2020 04:34 19,0 C 17,8 C 17,8 C 81 % 1008,8 hPa 0,0 l/m 0 min 0 min 0 W/m 6,4 km/h (2 Bft) 93,62 %
28.07.2020 04:36 19,0 C 17,8 C 17,8 C 81 % 1008,9 hPa 0,0 l/m 0 min 0 min 0 W/m 12,9 km/h (3 Bft) 95,74 %
28.07.2020 04:38 19,0 C 17,8 C 17,8 C 81 % 1008,9 hPa 0,0 l/m 0 min 0 min 0 W/m 19,3 km/h (3 Bft) 93,48 %
28.07.2020 04:40 19,0 C 17,8 C 17,8 C 81 % 1009,0 hPa 0,0 l/m 0 min 0 min 0 W/m 16,1 km/h (3 Bft) 95,74 %
28.07.2020 04:42 19,0 C 17,8 C 17,8 C 81 % 1009,0 hPa 0,0 l/m 0 min 0 min 0 W/m 9,7 km/h (2 Bft) 94,34 %
28.07.2020 04:44 18,9 C 17,8 C 17,8 C 81 % 1009,0 hPa 0,0 l/m 0 min 0 min 0 W/m 16,1 km/h (3 Bft) 93,62 %
28.07.2020 04:46 18,9 C 17,8 C 17,8 C 81 % 1009,0 hPa 0,0 l/m 0 min 0 min 0 W/m 9,7 km/h (2 Bft) 92,68 %
28.07.2020 04:48 18,9 C 17,8 C 17,2 C 81 % 1009,0 hPa 0,0 l/m 0 min 0 min 0 W/m 9,7 km/h (2 Bft) 96,23 %
28.07.2020 04:50 18,9 C 17,8 C 17,2 C 81 % 1009,0 hPa 0,0 l/m 0 min 0 min 0 W/m 9,7 km/h (2 Bft) 95,65 %
28.07.2020 04:52 18,9 C 17,8 C 17,2 C 82 % 1009,0 hPa 0,0 l/m 0 min 0 min 0 W/m 16,1 km/h (3 Bft) 87,50 %
28.07.2020 04:54 18,8 C 17,2 C 17,2 C 82 % 1009,0 hPa 0,0 l/m 0 min 0 min 0 W/m 16,1 km/h (3 Bft) 95,74 %
28.07.2020 04:56 18,8 C 17,8 C 17,2 C 82 % 1009,1 hPa 0,0 l/m 0 min 0 min 0 W/m 12,9 km/h (3 Bft) 95,74 %
28.07.2020 04:58 18,8 C 17,2 C 17,2 C 82 % 1009,1 hPa 0,0 l/m 0 min 0 min 0 W/m 9,7 km/h (2 Bft) 95,74 %
28.07.2020 05:00 18,8 C 17,2 C 17,2 C 82 % 1009,1 hPa 0,0 l/m 0 min 0 min 0 W/m 16,1 km/h (3 Bft) 93,48 %
28.07.2020 05:02 18,8 C 17,2 C 17,2 C 82 % 1009,2 hPa 0,0 l/m 0 min 0 min 0 W/m 12,9 km/h (3 Bft) 93,88 %
28.07.2020 05:04 18,7 C 17,2 C 17,2 C 82 % 1009,2 hPa 0,0 l/m 0 min 0 min 0 W/m 12,9 km/h (3 Bft) 91,49 %
28.07.2020 05:06 18,7 C 17,2 C 17,2 C 83 % 1009,2 hPa 0,0 l/m 0 min 0 min 0 W/m 9,7 km/h (2 Bft) 95,74 %
28.07.2020 05:08 18,7 C 17,2 C 17,2 C 83 % 1009,2 hPa 0,0 l/m 0 min 0 min 0 W/m 12,9 km/h (3 Bft) 95,74 %
28.07.2020 05:10 18,7 C 17,2 C 17,2 C 83 % 1009,2 hPa 0,0 l/m 0 min 0 min 0 W/m 6,4 km/h (2 Bft) 95,74 %
28.07.2020 05:12 18,7 C 17,2 C 17,2 C 83 % 1009,2 hPa 0,0 l/m 0 min 0 min 0 W/m 12,9 km/h (3 Bft) 95,65 %
28.07.2020 05:14 18,7 C 17,2 C 17,2 C 83 % 1009,3 hPa 0,0 l/m 0 min 0 min 0 W/m 9,7 km/h (2 Bft) 97,87 %
28.07.2020 05:16 18,6 C 17,2 C 17,2 C 83 % 1009,2 hPa 0,0 l/m 0 min 0 min 0 W/m 9,7 km/h (2 Bft) 97,87 %
28.07.2020 05:18 18,6 C 17,2 C 17,2 C 83 % 1009,2 hPa 0,0 l/m 0 min 0 min 0 W/m 9,7 km/h (2 Bft) 100,00 %
28.07.2020 05:20 18,6 C 17,8 C 17,2 C 83 % 1009,3 hPa 0,0 l/m 0 min 0 min 0 W/m 16,1 km/h (3 Bft) 100,00 %
28.07.2020 05:22 18,6 C 17,8 C 17,2 C 83 % 1009,3 hPa 0,0 l/m 0 min 0 min 0 W/m 6,4 km/h (2 Bft) 100,00 %
28.07.2020 05:24 18,6 C 17,8 C 17,2 C 83 % 1009,2 hPa 0,0 l/m 0 min 0 min 0 W/m 16,1 km/h (3 Bft) 100,00 %
28.07.2020 05:26 18,6 C 17,8 C 17,2 C 83 % 1009,2 hPa 0,0 l/m 0 min 0 min 0 W/m 19,3 km/h (3 Bft) 100,00 %
28.07.2020 05:28 18,6 C 17,8 C 17,2 C 83 % 1009,2 hPa 0,0 l/m 0 min 0 min 0 W/m 12,9 km/h (3 Bft) 95,74 %
28.07.2020 05:30 18,6 C 17,8 C 17,2 C 83 % 1009,2 hPa 0,0 l/m 0 min 0 min 0 W/m 12,9 km/h (3 Bft) 100,00 %
28.07.2020 05:32 18,6 C 17,8 C 17,2 C 83 % 1009,3 hPa 0,0 l/m 0 min 0 min 0 W/m 12,9 km/h (3 Bft) 100,00 %
28.07.2020 05:34 18,6 C 17,8 C 17,2 C 83 % 1009,2 hPa 0,0 l/m 0 min 0 min 0 W/m 9,7 km/h (2 Bft) 100,00 %
28.07.2020 05:36 18,6 C 17,8 C 17,2 C 83 % 1009,3 hPa 0,0 l/m 0 min 0 min 0 W/m 12,9 km/h (3 Bft) 100,00 %
28.07.2020 05:38 18,6 C 17,8 C 17,2 C 83 % 1009,3 hPa 0,0 l/m 0 min 0 min 0 W/m 25,7 km/h (4 Bft) 100,00 %
28.07.2020 05:40 18,6 C 17,8 C 17,2 C 83 % 1009,3 hPa 0,0 l/m 0 min 0 min 0 W/m 19,3 km/h (3 Bft) 95,74 %
28.07.2020 05:42 18,6 C 17,8 C 17,8 C 83 % 1009,3 hPa 0,0 l/m 0 min 0 min 0 W/m 16,1 km/h (3 Bft) 100,00 %
28.07.2020 05:44 18,6 C 17,8 C 17,8 C 83 % 1009,4 hPa 0,0 l/m 0 min 0 min 0 W/m 12,9 km/h (3 Bft) 100,00 %
28.07.2020 05:46 18,6 C 17,8 C 17,8 C 83 % 1009,4 hPa 0,0 l/m 0 min 0 min 0 W/m 9,7 km/h (2 Bft) 100,00 %
28.07.2020 05:48 18,6 C 17,8 C 17,2 C 83 % 1009,3 hPa 0,0 l/m 0 min 0 min 0 W/m 9,7 km/h (2 Bft) 95,74 %
28.07.2020 05:50 18,6 C 17,8 C 17,2 C 83 % 1009,4 hPa 0,0 l/m 0 min 0 min 0 W/m 9,7 km/h (2 Bft) 95,74 %
28.07.2020 05:52 18,7 C 17,8 C 17,2 C 83 % 1009,4 hPa 0,0 l/m 0 min 0 min 0 W/m 6,4 km/h (2 Bft) 97,87 %
28.07.2020 05:54 18,6 C 17,8 C 17,2 C 83 % 1009,4 hPa 0,0 l/m 0 min 0 min 0 W/m 6,4 km/h (2 Bft) 100,00 %
28.07.2020 05:56 18,7 C 17,8 C 17,2 C 83 % 1009,4 hPa 0,0 l/m 0 min 0 min 0 W/m 12,9 km/h (3 Bft) 95,74 %
28.07.2020 05:58 18,7 C 17,8 C 17,2 C 83 % 1009,4 hPa 0,0 l/m 0 min 0 min 0 W/m 3,2 km/h (1 Bft) 97,87 %
28.07.2020 06:00 18,7 C 17,8 C 17,2 C 83 % 1009,4 hPa 0,0 l/m 0 min 0 min 0 W/m 12,9 km/h (3 Bft) 95,65 %
28.07.2020 06:02 18,7 C 17,8 C 17,2 C 83 % 1009,5 hPa 0,0 l/m 0 min 0 min 0 W/m 6,4 km/h (2 Bft) 97,87 %
28.07.2020 06:04 18,7 C 17,8 C 17,2 C 83 % 1009,5 hPa 0,0 l/m 0 min 0 min 0 W/m 9,7 km/h (2 Bft) 95,74 %
28.07.2020 06:08 18,7 C 17,8 C 17,2 C 83 % 1009,5 hPa 0,0 l/m 0 min 0 min 0 W/m 12,9 km/h (3 Bft) 96,81 %
28.07.2020 06:10 18,7 C 17,8 C 17,2 C 83 % 1009,5 hPa 0,0 l/m 0 min 0 min 2 W/m 6,4 km/h (2 Bft) 97,87 %
28.07.2020 06:12 18,6 C 17,8 C 17,2 C 83 % 1009,5 hPa 0,0 l/m 0 min 0 min 2 W/m 9,7 km/h (2 Bft) 97,83 %
28.07.2020 06:14 18,7 C 17,8 C 17,2 C 83 % 1009,5 hPa 0,0 l/m 0 min 0 min 5 W/m 19,3 km/h (3 Bft) 97,87 %
28.07.2020 06:16 18,7 C 17,8 C 17,2 C 83 % 1009,5 hPa 0,0 l/m 0 min 0 min 5 W/m 6,4 km/h (2 Bft) 97,87 %
28.07.2020 06:18 18,7 C 17,8 C 17,2 C 83 % 1009,5 hPa 0,0 l/m 0 min 0 min 6 W/m 12,9 km/h (3 Bft) 97,87 %
28.07.2020 06:20 18,7 C 17,8 C 17,2 C 83 % 1009,5 hPa 0,0 l/m 0 min 0 min 7 W/m 16,1 km/h (3 Bft) 97,87 %
28.07.2020 06:22 18,7 C 17,8 C 17,8 C 83 % 1009,6 hPa 0,0 l/m 0 min 0 min 8 W/m 16,1 km/h (3 Bft) 97,87 %
28.07.2020 06:24 18,7 C 17,8 C 17,8 C 83 % 1009,5 hPa 0,0 l/m 0 min 0 min 11 W/m 16,1 km/h (3 Bft) 97,83 %
28.07.2020 06:26 18,7 C 17,8 C 17,2 C 83 % 1009,5 hPa 0,0 l/m 0 min 0 min 11 W/m 16,1 km/h (3 Bft) 97,87 %
28.07.2020 06:28 18,7 C 17,8 C 17,2 C 83 % 1009,5 hPa 0,0 l/m 0 min 0 min 13 W/m 12,9 km/h (3 Bft) 97,87 %
28.07.2020 06:30 18,7 C 17,8 C 17,2 C 83 % 1009,5 hPa 0,0 l/m 0 min 0 min 11 W/m 12,9 km/h (3 Bft) 97,87 %
28.07.2020 06:32 18,7 C 17,8 C 17,2 C 83 % 1009,5 hPa 0,0 l/m 0 min 0 min 13 W/m 3,2 km/h (1 Bft) 94,34 %
28.07.2020 06:34 18,7 C 17,8 C 17,2 C 83 % 1009,6 hPa 0,0 l/m 0 min 0 min 15 W/m 6,4 km/h (2 Bft) 97,83 %
28.07.2020 06:36 18,7 C 17,8 C 17,2 C 83 % 1009,6 hPa 0,0 l/m 0 min 0 min 16 W/m 6,4 km/h (2 Bft) 97,87 %
28.07.2020 06:38 18,6 C 17,8 C 17,2 C 83 % 1009,7 hPa 0,0 l/m 0 min 0 min 21 W/m 9,7 km/h (2 Bft) 97,87 %
28.07.2020 06:40 18,6 C 17,8 C 17,2 C 83 % 1009,7 hPa 0,0 l/m 0 min 0 min 19 W/m 12,9 km/h (3 Bft) 95,74 %
28.07.2020 06:42 18,6 C 17,8 C 17,2 C 83 % 1009,7 hPa 0,0 l/m 0 min 0 min 17 W/m 12,9 km/h (3 Bft) 95,74 %
28.07.2020 06:44 18,6 C 17,8 C 17,2 C 83 % 1009,7 hPa 0,0 l/m 0 min 0 min 14 W/m 6,4 km/h (2 Bft) 95,74 %
28.07.2020 06:46 18,7 C 17,8 C 17,2 C 83 % 1009,7 hPa 0,0 l/m 0 min 0 min 16 W/m 6,4 km/h (2 Bft) 100,00 %
28.07.2020 06:48 18,6 C 17,8 C 17,2 C 83 % 1009,7 hPa 0,0 l/m 0 min 0 min 18 W/m 19,3 km/h (3 Bft) 100,00 %
28.07.2020 06:50 18,6 C 17,8 C 17,8 C 83 % 1009,7 hPa 0,0 l/m 0 min 0 min 30 W/m 16,1 km/h (3 Bft) 100,00 %
28.07.2020 06:52 18,7 C 17,8 C 17,8 C 83 % 1009,8 hPa 0,0 l/m 0 min 0 min 35 W/m 16,1 km/h (3 Bft) 100,00 %
28.07.2020 06:54 18,7 C 17,8 C 17,8 C 84 % 1009,7 hPa 0,0 l/m 0 min 0 min 35 W/m 12,9 km/h (3 Bft) 91,49 %
28.07.2020 06:56 18,7 C 17,8 C 17,8 C 84 % 1009,8 hPa 0,0 l/m 0 min 0 min 29 W/m 9,7 km/h (2 Bft) 96,08 %
28.07.2020 06:58 18,7 C 17,8 C 17,8 C 84 % 1009,8 hPa 0,0 l/m 0 min 0 min 32 W/m 9,7 km/h (2 Bft) 97,87 %
28.07.2020 07:00 18,7 C 17,8 C 17,8 C 84 % 1009,9 hPa 0,0 l/m 0 min 0 min 29 W/m 6,4 km/h (2 Bft) 95,74 %
28.07.2020 07:02 18,7 C 17,8 C 17,8 C 84 % 1009,8 hPa 0,0 l/m 0 min 0 min 21 W/m 9,7 km/h (2 Bft) 97,92 %
28.07.2020 07:04 18,7 C 17,8 C 17,2 C 84 % 1009,8 hPa 0,0 l/m 0 min 0 min 19 W/m 16,1 km/h (3 Bft) 91,43 %
28.07.2020 07:06 18,7 C 17,8 C 17,2 C 84 % 1009,9 hPa 0,0 l/m 0 min 0 min 20 W/m 16,1 km/h (3 Bft) 95,74 %
28.07.2020 07:08 18,7 C 17,8 C 17,2 C 84 % 1009,9 hPa 0,0 l/m 0 min 0 min 25 W/m 16,1 km/h (3 Bft) 95,74 %
28.07.2020 07:10 18,7 C 17,8 C 17,2 C 84 % 1009,9 hPa 0,0 l/m 0 min 0 min 36 W/m 12,9 km/h (3 Bft) 97,83 %
28.07.2020 07:12 18,7 C 17,8 C 17,2 C 84 % 1009,9 hPa 0,0 l/m 0 min 0 min 32 W/m 16,1 km/h (3 Bft) 97,87 %
28.07.2020 07:14 18,7 C 17,8 C 17,2 C 84 % 1009,9 hPa 0,0 l/m 0 min 0 min 25 W/m 12,9 km/h (3 Bft) 93,62 %
28.07.2020 07:16 18,6 C 17,8 C 17,2 C 84 % 1010,0 hPa 0,0 l/m 0 min 0 min 26 W/m 6,4 km/h (2 Bft) 95,74 %
28.07.2020 07:18 18,7 C 17,8 C 17,2 C 84 % 1009,9 hPa 0,0 l/m 0 min 0 min 31 W/m 6,4 km/h (2 Bft) 95,74 %
28.07.2020 07:20 18,7 C 17,8 C 17,2 C 84 % 1009,9 hPa 0,0 l/m 0 min 0 min 31 W/m 19,3 km/h (3 Bft) 97,87 %
28.07.2020 07:22 18,7 C 17,8 C 17,2 C 84 % 1009,9 hPa 0,0 l/m 0 min 0 min 39 W/m 12,9 km/h (3 Bft) 97,83 %
28.07.2020 07:24 18,6 C 18,3 C 17,2 C 84 % 1010,0 hPa 0,0 l/m 0 min 0 min 73 W/m 12,9 km/h (3 Bft) 95,74 %
28.07.2020 07:26 18,7 C 18,3 C 17,8 C 84 % 1010,0 hPa 0,0 l/m 0 min 0 min 61 W/m 12,9 km/h (3 Bft) 95,74 %
28.07.2020 07:28 18,7 C 18,3 C 17,8 C 84 % 1010,0 hPa 0,0 l/m 0 min 0 min 60 W/m 9,7 km/h (2 Bft) 93,62 %
28.07.2020 07:30 18,7 C 18,3 C 17,8 C 84 % 1009,9 hPa 0,0 l/m 0 min 0 min 45 W/m 16,1 km/h (3 Bft) 95,74 %
28.07.2020 07:32 18,7 C 18,3 C 17,8 C 84 % 1010,1 hPa 0,0 l/m 0 min 0 min 34 W/m 25,7 km/h (4 Bft) 93,62 %
28.07.2020 07:34 18,7 C 18,3 C 17,8 C 84 % 1010,0 hPa 0,0 l/m 0 min 0 min 34 W/m 16,1 km/h (3 Bft) 95,65 %
28.07.2020 07:36 18,7 C 18,3 C 17,8 C 84 % 1010,0 hPa 0,0 l/m 0 min 0 min 39 W/m 12,9 km/h (3 Bft) 93,62 %
28.07.2020 07:38 18,7 C 18,3 C 17,8 C 84 % 1010,0 hPa 0,0 l/m 0 min 0 min 49 W/m 19,3 km/h (3 Bft) 95,74 %
28.07.2020 07:40 18,7 C 18,3 C 17,8 C 85 % 1010,0 hPa 0,0 l/m 0 min 0 min 50 W/m 19,3 km/h (3 Bft) 95,74 %
28.07.2020 07:42 18,7 C 18,3 C 17,8 C 85 % 1010,0 hPa 0,0 l/m 0 min 0 min 40 W/m 12,9 km/h (3 Bft) 95,74 %
28.07.2020 07:44 18,7 C 18,3 C 17,8 C 85 % 1009,9 hPa 0,0 l/m 0 min 0 min 39 W/m 12,9 km/h (3 Bft) 95,74 %
28.07.2020 07:46 18,8 C 18,3 C 17,8 C 85 % 1010,0 hPa 0,0 l/m 0 min 0 min 39 W/m 12,9 km/h (3 Bft) 97,83 %
28.07.2020 07:48 18,8 C 18,3 C 17,8 C 85 % 1010,0 hPa 0,0 l/m 0 min 0 min 42 W/m 16,1 km/h (3 Bft) 97,87 %
28.07.2020 07:50 18,8 C 18,3 C 17,8 C 85 % 1010,0 hPa 0,0 l/m 0 min 0 min 42 W/m 16,1 km/h (3 Bft) 97,87 %
28.07.2020 07:52 18,8 C 18,3 C 17,8 C 85 % 1010,1 hPa 0,0 l/m 0 min 0 min 40 W/m 12,9 km/h (3 Bft) 93,62 %
28.07.2020 07:54 18,8 C 18,3 C 17,8 C 85 % 1010,1 hPa 0,0 l/m 0 min 0 min 46 W/m 19,3 km/h (3 Bft) 97,87 %
28.07.2020 07:56 18,8 C 18,3 C 17,8 C 85 % 1010,2 hPa 0,0 l/m 0 min 0 min 53 W/m 12,9 km/h (3 Bft) 97,83 %
28.07.2020 07:58 18,9 C 18,9 C 17,8 C 85 % 1010,2 hPa 0,0 l/m 0 min 0 min 65 W/m 9,7 km/h (2 Bft) 96,49 %
28.07.2020 08:00 18,9 C 18,9 C 17,8 C 85 % 1010,2 hPa 0,0 l/m 0 min 0 min 63 W/m 6,4 km/h (2 Bft) 97,87 %
28.07.2020 08:02 18,9 C 18,9 C 18,3 C 86 % 1010,3 hPa 0,0 l/m 0 min 0 min 92 W/m 19,3 km/h (3 Bft) 97,87 %
28.07.2020 08:04 19,0 C 19,4 C 18,3 C 86 % 1010,2 hPa 0,0 l/m 2 min 0 min 155 W/m 12,9 km/h (3 Bft) 97,87 %
28.07.2020 08:06 19,0 C 19,4 C 18,3 C 86 % 1010,2 hPa 0,0 l/m 0 min 0 min 129 W/m 6,4 km/h (2 Bft) 97,83 %
28.07.2020 08:08 19,1 C 19,4 C 18,3 C 85 % 1010,3 hPa 0,0 l/m 0 min 0 min 99 W/m 9,7 km/h (2 Bft) 97,87 %
28.07.2020 08:10 19,1 C 19,4 C 18,3 C 85 % 1010,3 hPa 0,0 l/m 0 min 0 min 76 W/m 9,7 km/h (2 Bft) 97,87 %
28.07.2020 08:12 19,1 C 19,4 C 18,3 C 85 % 1010,3 hPa 0,0 l/m 0 min 0 min 68 W/m 16,1 km/h (3 Bft) 95,83 %
28.07.2020 08:14 19,2 C 19,4 C 18,3 C 85 % 1010,3 hPa 0,0 l/m 0 min 0 min 86 W/m 12,9 km/h (3 Bft) 100,00 %
28.07.2020 08:16 19,2 C 19,4 C 18,9 C 85 % 1010,3 hPa 0,0 l/m 0 min 0 min 125 W/m 22,5 km/h (4 Bft) 100,00 %
28.07.2020 08:18 19,3 C 19,4 C 18,9 C 85 % 1010,4 hPa 0,0 l/m 0 min 0 min 129 W/m 16,1 km/h (3 Bft) 100,00 %
28.07.2020 08:20 19,3 C 19,4 C 18,9 C 85 % 1010,3 hPa 0,0 l/m 0 min 0 min 103 W/m 19,3 km/h (3 Bft) 100,00 %
28.07.2020 08:22 19,3 C 19,4 C 18,9 C 85 % 1010,4 hPa 0,0 l/m 0 min 0 min 106 W/m 16,1 km/h (3 Bft) 100,00 %
28.07.2020 08:24 19,3 C 19,4 C 18,9 C 84 % 1010,6 hPa 0,0 l/m 0 min 0 min 147 W/m 22,5 km/h (4 Bft) 97,87 %
28.07.2020 08:26 19,4 C 20,6 C 18,9 C 84 % 1010,4 hPa 0,0 l/m 0 min 0 min 155 W/m 16,1 km/h (3 Bft) 100,00 %
28.07.2020 08:28 19,4 C 20,0 C 18,9 C 84 % 1010,5 hPa 0,0 l/m 0 min 0 min 139 W/m 16,1 km/h (3 Bft) 100,00 %
28.07.2020 08:30 19,5 C 20,6 C 18,9 C 84 % 1010,5 hPa 0,0 l/m 0 min 0 min 140 W/m 16,1 km/h (3 Bft) 97,83 %
28.07.2020 08:32 19,6 C 21,1 C 19,4 C 84 % 1010,6 hPa 0,0 l/m 0 min 0 min 164 W/m 12,9 km/h (3 Bft) 100,00 %
28.07.2020 08:34 19,6 C 22,8 C 19,4 C 84 % 1010,4 hPa 0,0 l/m 0 min 0 min 187 W/m 12,9 km/h (3 Bft) 100,00 %
28.07.2020 08:36 19,7 C 22,8 C 19,4 C 84 % 1010,5 hPa 0,0 l/m 0 min 0 min 186 W/m 12,9 km/h (3 Bft) 100,00 %
28.07.2020 08:38 19,8 C 22,2 C 19,4 C 84 % 1010,4 hPa 0,0 l/m 0 min 0 min 146 W/m 19,3 km/h (3 Bft) 100,00 %
28.07.2020 08:40 19,8 C 21,7 C 19,4 C 83 % 1010,5 hPa 0,0 l/m 0 min 0 min 141 W/m 9,7 km/h (2 Bft) 100,00 %
28.07.2020 08:42 19,9 C 20,6 C 19,4 C 83 % 1010,3 hPa 0,0 l/m 0 min 0 min 160 W/m 19,3 km/h (3 Bft) 100,00 %
28.07.2020 08:44 19,9 C 20,6 C 19,4 C 83 % 1010,6 hPa 0,0 l/m 0 min 0 min 140 W/m 6,4 km/h (2 Bft) 100,00 %
28.07.2020 08:46 20,0 C 20,6 C 19,4 C 82 % 1010,6 hPa 0,0 l/m 0 min 0 min 131 W/m 29,0 km/h (5 Bft) 100,00 %
28.07.2020 08:48 20,1 C 20,6 C 19,4 C 82 % 1010,6 hPa 0,0 l/m 0 min 0 min 156 W/m 16,1 km/h (3 Bft) 100,00 %
28.07.2020 08:50 20,1 C 21,1 C 19,4 C 82 % 1010,6 hPa 0,0 l/m 0 min 0 min 181 W/m 12,9 km/h (3 Bft) 100,00 %
28.07.2020 08:52 20,1 C 20,6 C 20,0 C 82 % 1010,7 hPa 0,0 l/m 0 min 0 min 177 W/m 19,3 km/h (3 Bft) 100,00 %
28.07.2020 08:54 20,1 C 20,6 C 19,4 C 81 % 1010,7 hPa 0,0 l/m 0 min 0 min 159 W/m 19,3 km/h (3 Bft) 95,74 %
28.07.2020 08:56 20,1 C 20,0 C 19,4 C 81 % 1010,7 hPa 0,0 l/m 0 min 0 min 139 W/m 25,7 km/h (4 Bft) 97,83 %
28.07.2020 08:58 20,2 C 20,0 C 19,4 C 80 % 1010,7 hPa 0,0 l/m 0 min 0 min 124 W/m 22,5 km/h (4 Bft) 100,00 %
28.07.2020 09:00 20,1 C 20,0 C 19,4 C 80 % 1010,7 hPa 0,0 l/m 0 min 0 min 139 W/m 19,3 km/h (3 Bft) 100,00 %
28.07.2020 09:02 20,1 C 21,1 C 21,1 C 81 % 1010,7 hPa 0,0 l/m 0 min 0 min 141 W/m 19,3 km/h (3 Bft) 100,00 %
28.07.2020 09:04 20,1 C 22,2 C 22,8 C 81 % 1010,6 hPa 0,0 l/m 0 min 0 min 197 W/m 16,1 km/h (3 Bft) 100,00 %
28.07.2020 09:06 20,2 C 23,3 C 24,4 C 81 % 1010,7 hPa 0,0 l/m 2 min 0 min 498 W/m 16,1 km/h (3 Bft) 97,83 %
28.07.2020 09:08 20,3 C 23,3 C 24,4 C 81 % 1010,7 hPa 0,0 l/m 2 min 0 min 460 W/m 19,3 km/h (3 Bft) 100,00 %
28.07.2020 09:10 20,3 C 22,2 C 23,3 C 81 % 1010,7 hPa 0,0 l/m 0 min 0 min 200 W/m 16,1 km/h (3 Bft) 97,87 %
28.07.2020 09:12 20,4 C 23,3 C 24,4 C 81 % 1010,7 hPa 0,0 l/m 2 min 0 min 256 W/m 12,9 km/h (3 Bft) 95,74 %
28.07.2020 09:14 20,5 C 23,3 C 25,0 C 80 % 1010,8 hPa 0,0 l/m 2 min 0 min 570 W/m 12,9 km/h (3 Bft) 97,87 %
28.07.2020 09:16 20,6 C 22,8 C 23,9 C 80 % 1010,8 hPa 0,0 l/m 2 min 0 min 552 W/m 12,9 km/h (3 Bft) 97,87 %
28.07.2020 09:18 20,7 C 23,3 C 23,9 C 80 % 1010,8 hPa 0,0 l/m 0 min 0 min 204 W/m 12,9 km/h (3 Bft) 97,83 %
28.07.2020 09:20 20,8 C 23,9 C 25,0 C 80 % 1010,8 hPa 0,0 l/m 2 min 0 min 299 W/m 16,1 km/h (3 Bft) 97,87 %
28.07.2020 09:22 20,8 C 22,8 C 23,3 C 80 % 1010,8 hPa 0,0 l/m 0 min 0 min 226 W/m 16,1 km/h (3 Bft) 97,87 %
28.07.2020 09:24 20,9 C 21,7 C 22,2 C 79 % 1010,8 hPa 0,0 l/m 0 min 0 min 209 W/m 16,1 km/h (3 Bft) 95,74 %
28.07.2020 09:26 20,9 C 22,8 C 23,3 C 79 % 1010,8 hPa 0,0 l/m 0 min 0 min 218 W/m 16,1 km/h (3 Bft) 91,49 %
28.07.2020 09:28 21,0 C 22,2 C 22,8 C 79 % 1010,8 hPa 0,0 l/m 0 min 0 min 238 W/m 12,9 km/h (3 Bft) 97,87 %
28.07.2020 09:30 21,0 C 21,7 C 21,7 C 78 % 1010,9 hPa 0,0 l/m 0 min 0 min 232 W/m 19,3 km/h (3 Bft) 97,83 %
28.07.2020 09:32 21,0 C 21,1 C 20,6 C 77 % 1010,8 hPa 0,0 l/m 0 min 0 min 187 W/m 19,3 km/h (3 Bft) 95,74 %
28.07.2020 09:34 20,9 C 20,6 C 20,0 C 77 % 1010,8 hPa 0,0 l/m 0 min 0 min 153 W/m 16,1 km/h (3 Bft) 89,36 %
28.07.2020 09:36 20,9 C 20,0 C 20,0 C 77 % 1010,8 hPa 0,0 l/m 0 min 0 min 116 W/m 12,9 km/h (3 Bft) 95,74 %
28.07.2020 09:38 20,9 C 20,0 C 19,4 C 78 % 1010,9 hPa 0,0 l/m 0 min 0 min 74 W/m 6,4 km/h (2 Bft) 95,74 %
28.07.2020 09:40 20,9 C 18,9 C 19,4 C 78 % 1010,9 hPa 0,0 l/m 0 min 2 min 55 W/m 6,4 km/h (2 Bft) 95,65 %
28.07.2020 09:42 20,8 C 18,9 C 18,9 C 79 % 1010,9 hPa 0,0 l/m 0 min 0 min 49 W/m 3,2 km/h (1 Bft) 95,65 %
28.07.2020 09:44 20,8 C 18,9 C 18,9 C 79 % 1010,9 hPa 0,0 l/m 0 min 0 min 85 W/m 9,7 km/h (2 Bft) 95,74 %
28.07.2020 09:46 20,8 C 18,9 C 18,9 C 79 % 1011,0 hPa 0,0 l/m 0 min 0 min 134 W/m 16,1 km/h (3 Bft) 95,74 %
28.07.2020 09:48 20,7 C 20,0 C 18,9 C 79 % 1010,9 hPa 0,0 l/m 0 min 0 min 169 W/m 12,9 km/h (3 Bft) 95,74 %
28.07.2020 09:50 20,6 C 20,0 C 19,4 C 79 % 1011,1 hPa 0,0 l/m 0 min 0 min 174 W/m 12,9 km/h (3 Bft) 93,62 %
28.07.2020 09:52 20,6 C 20,0 C 19,4 C 79 % 1011,1 hPa 0,0 l/m 0 min 0 min 171 W/m 12,9 km/h (3 Bft) 93,62 %
28.07.2020 09:54 20,5 C 20,0 C 19,4 C 79 % 1011,1 hPa 0,0 l/m 0 min 0 min 181 W/m 12,9 km/h (3 Bft) 95,65 %
28.07.2020 09:56 20,5 C 20,6 C 19,4 C 79 % 1011,0 hPa 0,0 l/m 0 min 0 min 210 W/m 12,9 km/h (3 Bft) 91,49 %
28.07.2020 09:58 20,5 C 22,8 C 21,7 C 80 % 1011,1 hPa 0,0 l/m 2 min 0 min 367 W/m 22,5 km/h (4 Bft) 91,49 %
28.07.2020 10:00 20,6 C 23,9 C 23,3 C 80 % 1011,0 hPa 0,0 l/m 2 min 0 min 751 W/m 12,9 km/h (3 Bft) 96,30 %
28.07.2020 10:02 20,7 C 23,9 C 23,3 C 80 % 1011,0 hPa 0,0 l/m 2 min 0 min 336 W/m 16,1 km/h (3 Bft) 97,92 %
28.07.2020 10:04 20,8 C 23,3 C 23,3 C 80 % 1011,0 hPa 0,0 l/m 0 min 0 min 261 W/m 12,9 km/h (3 Bft) 95,65 %
28.07.2020 10:06 20,8 C 23,3 C 22,8 C 79 % 1011,0 hPa 0,0 l/m 2 min 0 min 313 W/m 12,9 km/h (3 Bft) 97,87 %
28.07.2020 10:08 20,8 C 23,3 C 22,2 C 79 % 1011,1 hPa 0,0 l/m 2 min 0 min 401 W/m 25,7 km/h (4 Bft) 95,74 %
28.07.2020 10:10 20,9 C 23,9 C 23,3 C 78 % 1011,2 hPa 0,0 l/m 2 min 0 min 489 W/m 25,7 km/h (4 Bft) 97,87 %
28.07.2020 10:12 21,0 C 23,9 C 23,9 C 78 % 1011,2 hPa 0,0 l/m 2 min 0 min 809 W/m 16,1 km/h (3 Bft) 97,87 %
28.07.2020 10:14 21,1 C 22,8 C 22,8 C 77 % 1011,1 hPa 0,0 l/m 2 min 0 min 467 W/m 19,3 km/h (3 Bft) 100,00 %
28.07.2020 10:16 21,1 C 23,9 C 23,9 C 78 % 1011,1 hPa 0,0 l/m 2 min 0 min 462 W/m 12,9 km/h (3 Bft) 97,83 %
28.07.2020 10:18 21,1 C 23,9 C 23,9 C 77 % 1011,2 hPa 0,0 l/m 2 min 0 min 680 W/m 19,3 km/h (3 Bft) 97,87 %
28.07.2020 10:20 21,2 C 23,9 C 23,9 C 77 % 1011,2 hPa 0,0 l/m 2 min 0 min 702 W/m 16,1 km/h (3 Bft) 100,00 %
28.07.2020 10:22 21,2 C 23,9 C 23,9 C 77 % 1011,2 hPa 0,0 l/m 2 min 0 min 682 W/m 16,1 km/h (3 Bft) 95,74 %
28.07.2020 10:24 21,2 C 23,3 C 23,3 C 77 % 1011,2 hPa 0,0 l/m 2 min 0 min 712 W/m 12,9 km/h (3 Bft) 97,87 %
28.07.2020 10:26 21,3 C 25,0 C 24,4 C 77 % 1011,2 hPa 0,0 l/m 2 min 0 min 714 W/m 6,4 km/h (2 Bft) 100,00 %
28.07.2020 10:28 21,4 C 25,6 C 25,0 C 77 % 1011,2 hPa 0,0 l/m 2 min 0 min 803 W/m 6,4 km/h (2 Bft) 97,87 %
28.07.2020 10:30 21,6 C 25,0 C 25,0 C 77 % 1011,2 hPa 0,0 l/m 2 min 0 min 803 W/m 16,1 km/h (3 Bft) 97,87 %
28.07.2020 10:32 21,7 C 26,1 C 25,6 C 76 % 1011,2 hPa 0,0 l/m 2 min 0 min 787 W/m 16,1 km/h (3 Bft) 97,92 %
28.07.2020 10:34 21,8 C 26,7 C 26,7 C 76 % 1011,2 hPa 0,0 l/m 2 min 0 min 804 W/m 16,1 km/h (3 Bft) 100,00 %
28.07.2020 10:36 21,9 C 24,4 C 25,0 C 75 % 1011,2 hPa 0,0 l/m 2 min 0 min 574 W/m 16,1 km/h (3 Bft) 100,00 %
28.07.2020 10:38 22,0 C 25,0 C 25,0 C 74 % 1011,2 hPa 0,0 l/m 0 min 0 min 141 W/m 19,3 km/h (3 Bft) 100,00 %
28.07.2020 10:40 22,1 C 25,6 C 25,6 C 74 % 1011,2 hPa 0,0 l/m 2 min 0 min 576 W/m 12,9 km/h (3 Bft) 93,62 %
28.07.2020 10:42 22,2 C 26,1 C 26,1 C 74 % 1011,2 hPa 0,0 l/m 2 min 0 min 814 W/m 12,9 km/h (3 Bft) 100,00 %
28.07.2020 10:44 22,3 C 27,2 C 27,2 C 74 % 1011,2 hPa 0,0 l/m 2 min 0 min 828 W/m 19,3 km/h (3 Bft) 100,00 %
28.07.2020 10:46 22,4 C 27,2 C 26,7 C 73 % 1011,2 hPa 0,0 l/m 2 min 0 min 842 W/m 19,3 km/h (3 Bft) 97,87 %
28.07.2020 10:48 22,6 C 27,2 C 27,2 C 73 % 1011,2 hPa 0,0 l/m 2 min 0 min 908 W/m 16,1 km/h (3 Bft) 97,87 %
28.07.2020 10:50 22,7 C 27,2 C 27,2 C 72 % 1011,3 hPa 0,0 l/m 2 min 0 min 927 W/m 12,9 km/h (3 Bft) 95,65 %
28.07.2020 10:52 22,8 C 26,7 C 26,7 C 73 % 1011,2 hPa 0,0 l/m 2 min 0 min 923 W/m 16,1 km/h (3 Bft) 95,74 %
28.07.2020 10:54 22,8 C 25,0 C 25,6 C 70 % 1011,3 hPa 0,0 l/m 2 min 0 min 923 W/m 16,1 km/h (3 Bft) 97,87 %
28.07.2020 10:56 22,8 C 23,9 C 23,9 C 70 % 1011,3 hPa 0,0 l/m 0 min 0 min 277 W/m 9,7 km/h (2 Bft) 97,87 %
28.07.2020 10:58 22,7 C 25,0 C 24,4 C 71 % 1011,3 hPa 0,0 l/m 0 min 0 min 225 W/m 16,1 km/h (3 Bft) 97,87 %
28.07.2020 11:00 22,8 C 26,7 C 25,0 C 73 % 1011,3 hPa 0,0 l/m 0 min 0 min 225 W/m 9,7 km/h (2 Bft) 97,87 %
28.07.2020 11:02 22,8 C 26,7 C 24,4 C 72 % 1011,3 hPa 0,0 l/m 0 min 0 min 308 W/m 16,1 km/h (3 Bft) 94,44 %
28.07.2020 11:04 22,9 C 26,1 C 24,4 C 71 % 1011,3 hPa 0,0 l/m 2 min 0 min 956 W/m 19,3 km/h (3 Bft) 97,83 %
28.07.2020 11:06 22,9 C 25,6 C 24,4 C 70 % 1011,4 hPa 0,0 l/m 2 min 0 min 508 W/m 16,1 km/h (3 Bft) 97,87 %
28.07.2020 11:08 22,9 C 24,4 C 23,9 C 69 % 1011,3 hPa 0,0 l/m 2 min 0 min 354 W/m 16,1 km/h (3 Bft) 97,87 %
28.07.2020 11:10 22,9 C 23,9 C 23,3 C 69 % 1011,3 hPa 0,0 l/m 0 min 0 min 339 W/m 12,9 km/h (3 Bft) 97,87 %
28.07.2020 11:12 22,9 C 25,0 C 23,3 C 69 % 1011,3 hPa 0,0 l/m 0 min 0 min 343 W/m 22,5 km/h (4 Bft) 97,87 %
28.07.2020 11:14 22,9 C 25,0 C 23,3 C 70 % 1011,4 hPa 0,0 l/m 0 min 0 min 343 W/m 12,9 km/h (3 Bft) 97,87 %
28.07.2020 11:16 22,9 C 24,4 C 23,3 C 70 % 1011,3 hPa 0,0 l/m 0 min 0 min 336 W/m 16,1 km/h (3 Bft) 97,83 %
28.07.2020 11:18 23,0 C 24,4 C 23,3 C 70 % 1011,4 hPa 0,0 l/m 0 min 0 min 339 W/m 16,1 km/h (3 Bft) 95,74 %
28.07.2020 11:20 22,9 C 23,3 C 22,8 C 69 % 1011,4 hPa 0,0 l/m 0 min 0 min 181 W/m 12,9 km/h (3 Bft) 97,87 %
28.07.2020 11:22 22,9 C 22,2 C 22,2 C 70 % 1011,5 hPa 0,0 l/m 0 min 0 min 98 W/m 22,5 km/h (4 Bft) 97,87 %
28.07.2020 11:24 22,7 C 21,1 C 21,1 C 70 % 1011,6 hPa 0,0 l/m 0 min 0 min 82 W/m 16,1 km/h (3 Bft) 97,87 %
28.07.2020 11:26 22,4 C 20,6 C 20,6 C 69 % 1011,7 hPa 0,0 l/m 0 min 0 min 88 W/m 19,3 km/h (3 Bft) 95,74 %
28.07.2020 11:28 22,1 C 20,0 C 20,6 C 68 % 1011,7 hPa 0,0 l/m 0 min 0 min 91 W/m 12,9 km/h (3 Bft) 97,83 %
28.07.2020 11:30 21,9 C 20,0 C 20,0 C 68 % 1011,8 hPa 0,0 l/m 0 min 0 min 104 W/m 12,9 km/h (3 Bft) 95,74 %
28.07.2020 11:32 21,6 C 19,4 C 20,0 C 69 % 1011,9 hPa 0,0 l/m 0 min 0 min 103 W/m 9,7 km/h (2 Bft) 97,87 %
28.07.2020 11:34 21,3 C 19,4 C 20,0 C 70 % 1011,8 hPa 0,0 l/m 0 min 0 min 85 W/m 9,7 km/h (2 Bft) 97,87 %
28.07.2020 11:36 21,2 C 19,4 C 19,4 C 70 % 1011,9 hPa 0,0 l/m 0 min 0 min 81 W/m 9,7 km/h (2 Bft) 97,87 %
28.07.2020 11:38 21,1 C 19,4 C 19,4 C 71 % 1011,9 hPa 0,0 l/m 0 min 2 min 103 W/m 19,3 km/h (3 Bft) 97,87 %
28.07.2020 11:40 20,9 C 19,4 C 19,4 C 71 % 1011,9 hPa 0,0 l/m 0 min 0 min 163 W/m 9,7 km/h (2 Bft) 97,83 %
28.07.2020 11:42 20,8 C 20,0 C 19,4 C 72 % 1012,0 hPa 0,0 l/m 0 min 0 min 237 W/m 12,9 km/h (3 Bft) 97,87 %
28.07.2020 11:44 20,7 C 20,0 C 20,0 C 72 % 1012,0 hPa 0,0 l/m 0 min 0 min 209 W/m 9,7 km/h (2 Bft) 97,87 %
28.07.2020 11:46 20,6 C 20,0 C 20,0 C 73 % 1012,0 hPa 0,0 l/m 0 min 0 min 171 W/m 9,7 km/h (2 Bft) 97,87 %
28.07.2020 11:48 20,6 C 20,0 C 20,0 C 74 % 1012,1 hPa 0,0 l/m 0 min 0 min 153 W/m 12,9 km/h (3 Bft) 97,87 %
28.07.2020 11:50 20,4 C 19,4 C 19,4 C 73 % 1012,2 hPa 0,0 l/m 0 min 0 min 117 W/m 16,1 km/h (3 Bft) 93,48 %
28.07.2020 11:52 20,3 C 19,4 C 19,4 C 73 % 1012,3 hPa 0,0 l/m 0 min 0 min 131 W/m 9,7 km/h (2 Bft) 97,87 %
28.07.2020 11:54 20,2 C 19,4 C 19,4 C 74 % 1012,3 hPa 0,0 l/m 0 min 0 min 134 W/m 9,7 km/h (2 Bft) 97,87 %
28.07.2020 11:56 20,2 C 19,4 C 19,4 C 74 % 1012,3 hPa 0,0 l/m 0 min 0 min 189 W/m 9,7 km/h (2 Bft) 100,00 %
28.07.2020 11:58 20,1 C 20,0 C 19,4 C 75 % 1012,3 hPa 0,0 l/m 0 min 0 min 223 W/m 6,4 km/h (2 Bft) 100,00 %
28.07.2020 12:00 20,2 C 22,2 C 20,0 C 75 % 1012,3 hPa 0,0 l/m 0 min 0 min 258 W/m 9,7 km/h (2 Bft) 100,00 %
28.07.2020 12:02 20,2 C 23,9 C 20,6 C 76 % 1012,3 hPa 0,0 l/m 0 min 0 min 338 W/m 9,7 km/h (2 Bft) 97,83 %
28.07.2020 12:04 20,4 C 25,6 C 21,1 C 77 % 1012,4 hPa 0,0 l/m 2 min 0 min 815 W/m 9,7 km/h (2 Bft) 97,87 %
28.07.2020 12:08 20,9 C 26,1 C 22,2 C 74 % 1012,4 hPa 0,0 l/m 4 min 0 min 727 W/m 19,3 km/h (3 Bft) 95,00 %
28.07.2020 12:10 21,1 C 27,2 C 22,2 C 73 % 1012,4 hPa 0,0 l/m 2 min 0 min 662 W/m 9,7 km/h (2 Bft) 97,87 %
28.07.2020 12:12 21,4 C 26,7 C 22,2 C 72 % 1012,4 hPa 0,0 l/m 2 min 0 min 970 W/m 19,3 km/h (3 Bft) 95,74 %
28.07.2020 12:14 21,6 C 26,7 C 22,2 C 71 % 1012,3 hPa 0,0 l/m 2 min 0 min 970 W/m 12,9 km/h (3 Bft) 95,65 %
28.07.2020 12:16 21,8 C 26,7 C 22,8 C 70 % 1012,4 hPa 0,0 l/m 2 min 0 min 970 W/m 16,1 km/h (3 Bft) 95,12 %
28.07.2020 12:18 22,1 C 27,2 C 22,8 C 71 % 1012,3 hPa 0,0 l/m 2 min 0 min 965 W/m 19,3 km/h (3 Bft) 94,34 %
28.07.2020 12:20 22,2 C 28,3 C 22,8 C 70 % 1012,3 hPa 0,0 l/m 2 min 0 min 937 W/m 16,1 km/h (3 Bft) 95,74 %
28.07.2020 12:22 22,6 C 28,9 C 22,8 C 70 % 1012,4 hPa 0,0 l/m 2 min 0 min 938 W/m 12,9 km/h (3 Bft) 93,62 %
28.07.2020 12:24 22,8 C 29,4 C 22,8 C 69 % 1012,4 hPa 0,0 l/m 2 min 0 min 945 W/m 12,9 km/h (3 Bft) 95,65 %
28.07.2020 12:26 23,1 C 29,4 C 22,8 C 68 % 1012,3 hPa 0,0 l/m 2 min 0 min 960 W/m 12,9 km/h (3 Bft) 93,62 %
28.07.2020 12:28 23,3 C 30,0 C 23,3 C 67 % 1012,4 hPa 0,0 l/m 2 min 0 min 984 W/m 12,9 km/h (3 Bft) 95,74 %
28.07.2020 12:30 23,5 C 29,4 C 23,3 C 67 % 1012,4 hPa 0,0 l/m 2 min 0 min 971 W/m 16,1 km/h (3 Bft) 89,36 %
28.07.2020 12:32 23,7 C 30,0 C 23,3 C 65 % 1012,3 hPa 0,0 l/m 2 min 0 min 1034 W/m 16,1 km/h (3 Bft) 93,75 %
28.07.2020 12:34 23,8 C 28,3 C 23,3 C 65 % 1012,5 hPa 0,0 l/m 2 min 0 min 1046 W/m 16,1 km/h (3 Bft) 91,49 %
28.07.2020 12:36 23,8 C 27,2 C 23,3 C 64 % 1012,5 hPa 0,0 l/m 2 min 0 min 1038 W/m 16,1 km/h (3 Bft) 95,65 %
28.07.2020 12:38 23,9 C 27,2 C 23,3 C 64 % 1012,6 hPa 0,0 l/m 2 min 0 min 993 W/m 19,3 km/h (3 Bft) 93,62 %
28.07.2020 12:40 23,9 C 27,8 C 23,3 C 64 % 1012,5 hPa 0,0 l/m 2 min 0 min 1029 W/m 16,1 km/h (3 Bft) 95,74 %
28.07.2020 12:42 24,1 C 27,8 C 23,9 C 64 % 1012,5 hPa 0,0 l/m 2 min 0 min 994 W/m 12,9 km/h (3 Bft) 91,49 %
28.07.2020 12:44 24,1 C 26,7 C 23,3 C 64 % 1012,5 hPa 0,0 l/m 2 min 0 min 803 W/m 16,1 km/h (3 Bft) 95,74 %
28.07.2020 12:46 24,1 C 25,0 C 23,3 C 63 % 1012,5 hPa 0,0 l/m 2 min 0 min 435 W/m 16,1 km/h (3 Bft) 97,87 %
28.07.2020 12:48 24,1 C 25,0 C 23,3 C 64 % 1012,7 hPa 0,0 l/m 2 min 0 min 441 W/m 16,1 km/h (3 Bft) 95,65 %
28.07.2020 12:50 23,9 C 25,6 C 23,3 C 64 % 1012,6 hPa 0,0 l/m 2 min 0 min 441 W/m 29,0 km/h (5 Bft) 95,74 %
28.07.2020 12:52 23,9 C 27,2 C 23,9 C 64 % 1012,6 hPa 0,0 l/m 2 min 0 min 724 W/m 22,5 km/h (4 Bft) 97,87 %
28.07.2020 12:54 23,9 C 27,8 C 23,3 C 65 % 1012,5 hPa 0,0 l/m 2 min 0 min 1085 W/m 19,3 km/h (3 Bft) 97,87 %
28.07.2020 12:56 23,9 C 27,2 C 23,3 C 65 % 1012,5 hPa 0,0 l/m 2 min 0 min 947 W/m 9,7 km/h (2 Bft) 89,36 %
28.07.2020 12:58 23,9 C 26,7 C 23,3 C 64 % 1012,6 hPa 0,0 l/m 2 min 0 min 885 W/m 16,1 km/h (3 Bft) 93,62 %
28.07.2020 13:00 23,9 C 26,1 C 23,3 C 64 % 1012,5 hPa 0,0 l/m 0 min 0 min 376 W/m 16,1 km/h (3 Bft) 97,83 %
28.07.2020 13:02 23,9 C 26,7 C 23,3 C 64 % 1012,5 hPa 0,0 l/m 0 min 0 min 370 W/m 16,1 km/h (3 Bft) 95,00 %
28.07.2020 13:04 23,8 C 25,0 C 23,3 C 63 % 1012,5 hPa 0,0 l/m 0 min 0 min 369 W/m 16,1 km/h (3 Bft) 97,87 %
28.07.2020 13:06 23,8 C 25,6 C 23,3 C 64 % 1012,6 hPa 0,0 l/m 0 min 0 min 369 W/m 12,9 km/h (3 Bft) 97,87 %
28.07.2020 13:08 23,8 C 27,8 C 23,3 C 65 % 1012,5 hPa 0,0 l/m 2 min 0 min 809 W/m 12,9 km/h (3 Bft) 100,00 %
28.07.2020 13:10 23,9 C 28,3 C 23,3 C 66 % 1012,6 hPa 0,0 l/m 2 min 0 min 947 W/m 25,7 km/h (4 Bft) 100,00 %
28.07.2020 13:12 24,0 C 28,9 C 23,3 C 65 % 1012,7 hPa 0,0 l/m 2 min 0 min 990 W/m 16,1 km/h (3 Bft) 100,00 %
28.07.2020 13:14 24,1 C 28,3 C 23,9 C 64 % 1012,6 hPa 0,0 l/m 2 min 0 min 1043 W/m 29,0 km/h (5 Bft) 97,87 %
28.07.2020 13:16 24,1 C 26,1 C 23,3 C 62 % 1012,7 hPa 0,0 l/m 2 min 0 min 886 W/m 25,7 km/h (4 Bft) 97,87 %
28.07.2020 13:18 24,1 C 26,7 C 23,3 C 63 % 1013,0 hPa 0,0 l/m 2 min 0 min 879 W/m 35,4 km/h (5 Bft) 97,87 %
28.07.2020 13:20 24,0 C 25,6 C 23,3 C 62 % 1012,6 hPa 0,0 l/m 2 min 0 min 879 W/m 19,3 km/h (3 Bft) 100,00 %
28.07.2020 13:22 24,0 C 27,2 C 23,3 C 63 % 1012,6 hPa 0,0 l/m 2 min 0 min 892 W/m 12,9 km/h (3 Bft) 100,00 %
28.07.2020 13:24 24,1 C 28,3 C 23,9 C 63 % 1012,6 hPa 0,0 l/m 2 min 0 min 1113 W/m 12,9 km/h (3 Bft) 97,83 %
28.07.2020 13:26 24,2 C 28,9 C 24,4 C 64 % 1012,6 hPa 0,0 l/m 2 min 0 min 1121 W/m 16,1 km/h (3 Bft) 100,00 %
28.07.2020 13:28 24,2 C 26,7 C 24,4 C 61 % 1012,6 hPa 0,0 l/m 2 min 0 min 1090 W/m 19,3 km/h (3 Bft) 100,00 %
28.07.2020 13:30 24,2 C 25,6 C 23,9 C 61 % 1012,7 hPa 0,0 l/m 0 min 0 min 336 W/m 12,9 km/h (3 Bft) 100,00 %
28.07.2020 13:32 24,1 C 25,0 C 23,3 C 63 % 1012,6 hPa 0,0 l/m 0 min 0 min 237 W/m 25,7 km/h (4 Bft) 95,74 %
28.07.2020 13:34 24,1 C 27,2 C 23,3 C 63 % 1012,6 hPa 0,0 l/m 2 min 0 min 637 W/m 12,9 km/h (3 Bft) 100,00 %
28.07.2020 13:36 24,2 C 28,9 C 23,9 C 64 % 1012,6 hPa 0,0 l/m 2 min 0 min 1012 W/m 16,1 km/h (3 Bft) 100,00 %
28.07.2020 13:38 24,3 C 29,4 C 23,9 C 62 % 1012,6 hPa 0,0 l/m 2 min 0 min 999 W/m 12,9 km/h (3 Bft) 100,00 %
28.07.2020 13:40 24,4 C 29,4 C 24,4 C 61 % 1012,6 hPa 0,0 l/m 2 min 0 min 980 W/m 16,1 km/h (3 Bft) 100,00 %
28.07.2020 13:42 24,5 C 30,0 C 24,4 C 61 % 1012,6 hPa 0,0 l/m 2 min 0 min 988 W/m 16,1 km/h (3 Bft) 100,00 %
28.07.2020 13:44 24,6 C 29,4 C 24,4 C 62 % 1012,6 hPa 0,0 l/m 2 min 0 min 980 W/m 16,1 km/h (3 Bft) 100,00 %
28.07.2020 13:46 24,7 C 27,8 C 24,4 C 61 % 1012,5 hPa 0,0 l/m 2 min 0 min 576 W/m 9,7 km/h (2 Bft) 100,00 %
28.07.2020 13:48 24,7 C 28,3 C 24,4 C 61 % 1012,6 hPa 0,0 l/m 2 min 0 min 848 W/m 12,9 km/h (3 Bft) 100,00 %
28.07.2020 13:50 24,8 C 27,2 C 25,0 C 61 % 1012,6 hPa 0,0 l/m 2 min 0 min 1069 W/m 19,3 km/h (3 Bft) 100,00 %
28.07.2020 13:52 24,7 C 24,4 C 24,4 C 59 % 1012,6 hPa 0,0 l/m 0 min 0 min 204 W/m 12,9 km/h (3 Bft) 100,00 %
28.07.2020 13:54 24,6 C 25,0 C 23,9 C 60 % 1012,7 hPa 0,0 l/m 0 min 0 min 194 W/m 9,7 km/h (2 Bft) 100,00 %
28.07.2020 13:56 24,6 C 27,2 C 25,0 C 61 % 1012,6 hPa 0,0 l/m 2 min 0 min 524 W/m 19,3 km/h (3 Bft) 100,00 %
28.07.2020 13:58 24,6 C 28,3 C 25,6 C 59 % 1012,7 hPa 0,0 l/m 2 min 0 min 980 W/m 16,1 km/h (3 Bft) 100,00 %
28.07.2020 14:00 24,6 C 28,9 C 26,7 C 61 % 1012,7 hPa 0,0 l/m 2 min 0 min 991 W/m 12,9 km/h (3 Bft) 97,83 %
28.07.2020 14:02 24,7 C 29,4 C 27,2 C 60 % 1012,6 hPa 0,0 l/m 2 min 0 min 1030 W/m 19,3 km/h (3 Bft) 100,00 %
28.07.2020 14:04 24,7 C 28,3 C 26,7 C 60 % 1012,7 hPa 0,0 l/m 2 min 0 min 1074 W/m 19,3 km/h (3 Bft) 100,00 %
28.07.2020 14:06 24,7 C 27,8 C 26,7 C 60 % 1012,6 hPa 0,0 l/m 2 min 0 min 1063 W/m 9,7 km/h (2 Bft) 100,00 %
28.07.2020 14:08 24,8 C 26,7 C 25,6 C 59 % 1012,6 hPa 0,0 l/m 2 min 0 min 491 W/m 12,9 km/h (3 Bft) 100,00 %
28.07.2020 14:10 24,7 C 26,7 C 25,6 C 59 % 1012,6 hPa 0,0 l/m 0 min 0 min 396 W/m 22,5 km/h (4 Bft) 97,83 %
28.07.2020 14:12 24,7 C 27,2 C 25,6 C 60 % 1012,6 hPa 0,0 l/m 0 min 0 min 396 W/m 12,9 km/h (3 Bft) 97,87 %
28.07.2020 14:14 24,8 C 27,8 C 26,1 C 57 % 1012,6 hPa 0,0 l/m 2 min 0 min 709 W/m 16,1 km/h (3 Bft) 97,87 %
28.07.2020 14:16 24,8 C 27,2 C 25,6 C 56 % 1012,5 hPa 0,0 l/m 2 min 0 min 1005 W/m 19,3 km/h (3 Bft) 100,00 %
28.07.2020 14:18 24,8 C 26,1 C 25,0 C 59 % 1012,6 hPa 0,0 l/m 0 min 0 min 403 W/m 16,1 km/h (3 Bft) 100,00 %
28.07.2020 14:20 24,7 C 24,4 C 23,9 C 58 % 1012,7 hPa 0,0 l/m 0 min 0 min 197 W/m 32,2 km/h (5 Bft) 100,00 %
28.07.2020 14:22 24,5 C 25,0 C 23,9 C 57 % 1012,6 hPa 0,0 l/m 0 min 0 min 185 W/m 12,9 km/h (3 Bft) 97,83 %
28.07.2020 14:24 24,4 C 25,6 C 24,4 C 59 % 1012,7 hPa 0,0 l/m 0 min 0 min 185 W/m 22,5 km/h (4 Bft) 97,87 %
28.07.2020 14:26 24,4 C 26,7 C 23,9 C 60 % 1012,6 hPa 0,0 l/m 0 min 0 min 230 W/m 9,7 km/h (2 Bft) 100,00 %
28.07.2020 14:28 24,4 C 26,7 C 24,4 C 60 % 1012,6 hPa 0,0 l/m 0 min 0 min 250 W/m 22,5 km/h (4 Bft) 100,00 %
28.07.2020 14:30 24,4 C 25,6 C 23,9 C 60 % 1012,6 hPa 0,0 l/m 0 min 0 min 287 W/m 16,1 km/h (3 Bft) 100,00 %
28.07.2020 14:32 24,3 C 24,4 C 23,3 C 60 % 1012,7 hPa 0,0 l/m 0 min 0 min 289 W/m 16,1 km/h (3 Bft) 94,23 %
28.07.2020 14:34 24,2 C 24,4 C 23,3 C 60 % 1012,8 hPa 0,0 l/m 0 min 0 min 336 W/m 9,7 km/h (2 Bft) 97,87 %
28.07.2020 14:36 24,1 C 26,1 C 23,3 C 61 % 1012,8 hPa 0,0 l/m 0 min 0 min 381 W/m 9,7 km/h (2 Bft) 95,74 %
28.07.2020 14:38 24,2 C 27,2 C 23,3 C 61 % 1012,8 hPa 0,0 l/m 0 min 0 min 380 W/m 16,1 km/h (3 Bft) 95,74 %
28.07.2020 14:40 24,2 C 26,7 C 23,3 C 60 % 1012,8 hPa 0,0 l/m 0 min 0 min 350 W/m 9,7 km/h (2 Bft) 93,62 %
28.07.2020 14:42 24,2 C 25,6 C 23,3 C 60 % 1012,9 hPa 0,0 l/m 0 min 0 min 303 W/m 16,1 km/h (3 Bft) 95,74 %
28.07.2020 14:44 24,1 C 24,4 C 22,8 C 59 % 1012,9 hPa 0,0 l/m 0 min 0 min 251 W/m 16,1 km/h (3 Bft) 93,48 %
28.07.2020 14:46 24,1 C 23,9 C 22,8 C 59 % 1012,9 hPa 0,0 l/m 0 min 0 min 265 W/m 9,7 km/h (2 Bft) 95,74 %
28.07.2020 14:48 23,9 C 23,9 C 22,8 C 59 % 1013,0 hPa 0,0 l/m 0 min 0 min 333 W/m 22,5 km/h (4 Bft) 95,74 %
28.07.2020 14:50 23,9 C 24,4 C 23,3 C 60 % 1013,0 hPa 0,0 l/m 0 min 0 min 369 W/m 12,9 km/h (3 Bft) 95,74 %
28.07.2020 14:52 23,8 C 25,0 C 23,3 C 60 % 1013,0 hPa 0,0 l/m 0 min 0 min 390 W/m 12,9 km/h (3 Bft) 95,74 %
28.07.2020 14:54 23,8 C 25,6 C 23,3 C 60 % 1013,1 hPa 0,0 l/m 0 min 0 min 390 W/m 12,9 km/h (3 Bft) 95,74 %
28.07.2020 14:56 23,8 C 24,4 C 23,3 C 59 % 1013,0 hPa 0,0 l/m 0 min 0 min 339 W/m 16,1 km/h (3 Bft) 95,65 %
28.07.2020 14:58 23,7 C 23,9 C 23,3 C 59 % 1013,1 hPa 0,0 l/m 0 min 0 min 326 W/m 16,1 km/h (3 Bft) 95,74 %
28.07.2020 15:00 23,6 C 26,1 C 23,3 C 60 % 1013,1 hPa 0,0 l/m 0 min 0 min 353 W/m 12,9 km/h (3 Bft) 97,87 %
28.07.2020 15:02 23,7 C 27,8 C 23,9 C 61 % 1013,0 hPa 0,0 l/m 2 min 0 min 993 W/m 12,9 km/h (3 Bft) 91,84 %
28.07.2020 15:04 23,8 C 26,7 C 23,9 C 61 % 1013,0 hPa 0,0 l/m 2 min 0 min 1042 W/m 16,1 km/h (3 Bft) 95,74 %
28.07.2020 15:06 23,8 C 25,0 C 23,3 C 60 % 1013,0 hPa 0,0 l/m 0 min 0 min 259 W/m 12,9 km/h (3 Bft) 95,56 %
28.07.2020 15:08 23,8 C 23,9 C 23,3 C 59 % 1013,0 hPa 0,0 l/m 0 min 0 min 259 W/m 16,1 km/h (3 Bft) 93,48 %
28.07.2020 15:10 23,7 C 23,3 C 23,3 C 59 % 1013,0 hPa 0,0 l/m 0 min 0 min 292 W/m 19,3 km/h (3 Bft) 95,74 %
28.07.2020 15:12 23,7 C 23,3 C 22,8 C 60 % 1013,1 hPa 0,0 l/m 0 min 0 min 278 W/m 16,1 km/h (3 Bft) 95,74 %
28.07.2020 15:14 23,6 C 22,8 C 22,8 C 60 % 1013,1 hPa 0,0 l/m 0 min 0 min 240 W/m 29,0 km/h (5 Bft) 93,62 %
28.07.2020 15:16 23,4 C 22,2 C 22,2 C 59 % 1013,2 hPa 0,0 l/m 0 min 0 min 206 W/m 29,0 km/h (5 Bft) 95,12 %
28.07.2020 15:18 23,3 C 22,2 C 21,7 C 59 % 1013,3 hPa 0,0 l/m 0 min 0 min 220 W/m 25,7 km/h (4 Bft) 98,11 %
28.07.2020 15:20 23,2 C 22,2 C 22,2 C 60 % 1013,4 hPa 0,0 l/m 0 min 0 min 245 W/m 16,1 km/h (3 Bft) 95,65 %
28.07.2020 15:22 23,1 C 22,2 C 21,7 C 60 % 1013,4 hPa 0,0 l/m 0 min 0 min 270 W/m 25,7 km/h (4 Bft) 97,87 %
28.07.2020 15:24 22,9 C 25,0 C 22,2 C 61 % 1013,3 hPa 0,0 l/m 0 min 0 min 323 W/m 12,9 km/h (3 Bft) 97,87 %
28.07.2020 15:26 23,0 C 25,0 C 22,8 C 60 % 1013,4 hPa 0,0 l/m 2 min 0 min 897 W/m 22,5 km/h (4 Bft) 97,87 %
28.07.2020 15:28 23,0 C 25,0 C 22,8 C 61 % 1013,4 hPa 0,0 l/m 0 min 0 min 337 W/m 12,9 km/h (3 Bft) 95,74 %
28.07.2020 15:30 23,1 C 25,6 C 22,8 C 61 % 1013,4 hPa 0,0 l/m 2 min 0 min 424 W/m 12,9 km/h (3 Bft) 91,30 %
28.07.2020 15:32 23,1 C 25,0 C 22,8 C 60 % 1013,5 hPa 0,0 l/m 2 min 0 min 550 W/m 16,1 km/h (3 Bft) 96,15 %
28.07.2020 15:34 23,1 C 24,4 C 22,8 C 60 % 1013,4 hPa 0,0 l/m 2 min 0 min 395 W/m 9,7 km/h (2 Bft) 97,87 %
28.07.2020 15:36 23,1 C 23,9 C 22,8 C 60 % 1013,4 hPa 0,0 l/m 0 min 0 min 288 W/m 19,3 km/h (3 Bft) 97,87 %
28.07.2020 15:38 23,1 C 23,3 C 22,2 C 60 % 1013,4 hPa 0,0 l/m 0 min 0 min 241 W/m 12,9 km/h (3 Bft) 97,87 %
28.07.2020 15:40 23,1 C 24,4 C 22,2 C 60 % 1013,5 hPa 0,0 l/m 0 min 0 min 243 W/m 9,7 km/h (2 Bft) 100,00 %
28.07.2020 15:42 23,1 C 25,0 C 22,8 C 60 % 1013,5 hPa 0,0 l/m 0 min 0 min 366 W/m 12,9 km/h (3 Bft) 97,22 %
28.07.2020 15:44 23,2 C 27,8 C 23,3 C 61 % 1013,5 hPa 0,0 l/m 2 min 0 min 783 W/m 12,9 km/h (3 Bft) 93,48 %
28.07.2020 15:46 23,4 C 28,9 C 23,9 C 58 % 1013,5 hPa 0,0 l/m 2 min 0 min 1040 W/m 16,1 km/h (3 Bft) 97,87 %
28.07.2020 15:48 23,6 C 27,2 C 23,9 C 57 % 1013,4 hPa 0,0 l/m 2 min 0 min 961 W/m 12,9 km/h (3 Bft) 93,62 %
28.07.2020 15:50 23,6 C 26,1 C 23,3 C 57 % 1013,5 hPa 0,0 l/m 0 min 0 min 303 W/m 12,9 km/h (3 Bft) 93,62 %
28.07.2020 15:52 23,8 C 27,2 C 23,9 C 57 % 1013,4 hPa 0,0 l/m 0 min 0 min 304 W/m 12,9 km/h (3 Bft) 93,62 %
28.07.2020 15:54 23,8 C 25,0 C 23,3 C 56 % 1013,6 hPa 0,0 l/m 0 min 0 min 274 W/m 16,1 km/h (3 Bft) 95,74 %
28.07.2020 15:56 23,8 C 23,9 C 23,3 C 55 % 1013,5 hPa 0,0 l/m 0 min 0 min 219 W/m 16,1 km/h (3 Bft) 89,13 %
28.07.2020 15:58 23,8 C 25,0 C 22,8 C 55 % 1013,5 hPa 0,0 l/m 0 min 0 min 232 W/m 19,3 km/h (3 Bft) 97,87 %
28.07.2020 16:00 23,8 C 27,2 C 23,3 C 56 % 1013,5 hPa 0,0 l/m 2 min 0 min 928 W/m 16,1 km/h (3 Bft) 97,87 %
28.07.2020 16:02 23,9 C 28,3 C 23,9 C 55 % 1013,5 hPa 0,0 l/m 2 min 0 min 991 W/m 16,1 km/h (3 Bft) 95,74 %
28.07.2020 16:04 24,1 C 29,4 C 24,4 C 57 % 1013,5 hPa 0,0 l/m 2 min 0 min 977 W/m 16,1 km/h (3 Bft) 95,74 %
28.07.2020 16:06 24,3 C 28,3 C 23,9 C 55 % 1013,6 hPa 0,0 l/m 2 min 0 min 925 W/m 9,7 km/h (2 Bft) 97,87 %
28.07.2020 16:08 24,4 C 25,6 C 23,9 C 53 % 1013,7 hPa 0,0 l/m 0 min 0 min 312 W/m 12,9 km/h (3 Bft) 96,15 %
28.07.2020 16:10 24,4 C 25,0 C 23,3 C 53 % 1013,6 hPa 0,0 l/m 0 min 0 min 292 W/m 12,9 km/h (3 Bft) 97,87 %
28.07.2020 16:12 24,3 C 24,4 C 22,8 C 52 % 1013,6 hPa 0,0 l/m 0 min 0 min 316 W/m 12,9 km/h (3 Bft) 97,87 %
28.07.2020 16:14 24,3 C 23,9 C 22,8 C 53 % 1013,6 hPa 0,0 l/m 2 min 0 min 376 W/m 12,9 km/h (3 Bft) 97,87 %
28.07.2020 16:16 24,2 C 23,9 C 22,8 C 53 % 1013,6 hPa 0,0 l/m 2 min 0 min 362 W/m 9,7 km/h (2 Bft) 97,87 %
28.07.2020 16:18 24,1 C 23,9 C 22,8 C 53 % 1013,6 hPa 0,0 l/m 0 min 0 min 319 W/m 12,9 km/h (3 Bft) 100,00 %
28.07.2020 16:20 24,1 C 23,9 C 22,8 C 53 % 1013,7 hPa 0,0 l/m 0 min 0 min 295 W/m 9,7 km/h (2 Bft) 97,87 %
28.07.2020 16:22 23,9 C 23,9 C 22,8 C 52 % 1013,6 hPa 0,0 l/m 0 min 0 min 304 W/m 19,3 km/h (3 Bft) 97,87 %
28.07.2020 16:24 23,9 C 23,9 C 22,8 C 52 % 1013,7 hPa 0,0 l/m 0 min 0 min 328 W/m 16,1 km/h (3 Bft) 100,00 %
28.07.2020 16:26 23,8 C 23,3 C 22,8 C 52 % 1013,7 hPa 0,0 l/m 2 min 0 min 348 W/m 16,1 km/h (3 Bft) 100,00 %
28.07.2020 16:28 23,7 C 23,3 C 22,8 C 51 % 1013,8 hPa 0,0 l/m 2 min 0 min 380 W/m 16,1 km/h (3 Bft) 97,87 %
28.07.2020 16:30 23,6 C 23,9 C 22,8 C 51 % 1013,8 hPa 0,0 l/m 2 min 0 min 391 W/m 12,9 km/h (3 Bft) 100,00 %
28.07.2020 16:32 23,6 C 24,4 C 22,8 C 53 % 1014,0 hPa 0,0 l/m 2 min 0 min 472 W/m 19,3 km/h (3 Bft) 97,92 %
28.07.2020 16:34 23,5 C 25,0 C 22,8 C 52 % 1013,7 hPa 0,0 l/m 2 min 0 min 483 W/m 25,7 km/h (4 Bft) 100,00 %
28.07.2020 16:36 23,6 C 26,1 C 23,9 C 53 % 1013,7 hPa 0,0 l/m 2 min 0 min 501 W/m 12,9 km/h (3 Bft) 100,00 %
28.07.2020 16:38 23,6 C 26,7 C 24,4 C 52 % 1013,7 hPa 0,0 l/m 2 min 0 min 672 W/m 22,5 km/h (4 Bft) 97,87 %
28.07.2020 16:40 23,7 C 27,8 C 24,4 C 53 % 1013,6 hPa 0,0 l/m 2 min 0 min 751 W/m 9,7 km/h (2 Bft) 100,00 %
28.07.2020 16:42 23,8 C 27,2 C 23,9 C 53 % 1013,7 hPa 0,0 l/m 2 min 0 min 664 W/m 16,1 km/h (3 Bft) 100,00 %
28.07.2020 16:44 24,0 C 26,7 C 23,9 C 52 % 1013,7 hPa 0,0 l/m 2 min 0 min 661 W/m 12,9 km/h (3 Bft) 100,00 %
28.07.2020 16:46 24,0 C 26,7 C 23,9 C 51 % 1013,7 hPa 0,0 l/m 2 min 0 min 450 W/m 12,9 km/h (3 Bft) 100,00 %
28.07.2020 16:48 24,1 C 26,1 C 23,9 C 52 % 1013,8 hPa 0,0 l/m 2 min 0 min 319 W/m 12,9 km/h (3 Bft) 97,87 %
28.07.2020 16:50 24,1 C 25,0 C 23,3 C 51 % 1013,9 hPa 0,0 l/m 2 min 0 min 320 W/m 16,1 km/h (3 Bft) 100,00 %
28.07.2020 16:52 24,1 C 24,4 C 23,3 C 51 % 1013,8 hPa 0,0 l/m 2 min 0 min 384 W/m 9,7 km/h (2 Bft) 97,83 %
28.07.2020 16:54 24,1 C 23,9 C 22,8 C 50 % 1014,0 hPa 0,0 l/m 0 min 0 min 204 W/m 12,9 km/h (3 Bft) 100,00 %
28.07.2020 16:56 24,1 C 25,6 C 22,8 C 50 % 1013,9 hPa 0,0 l/m 2 min 0 min 653 W/m 16,1 km/h (3 Bft) 97,87 %
28.07.2020 16:58 24,1 C 26,7 C 23,3 C 50 % 1013,9 hPa 0,0 l/m 2 min 0 min 816 W/m 16,1 km/h (3 Bft) 100,00 %
28.07.2020 17:00 24,1 C 27,2 C 23,9 C 51 % 1013,9 hPa 0,0 l/m 2 min 0 min 784 W/m 19,3 km/h (3 Bft) 100,00 %
28.07.2020 17:02 24,1 C 25,0 C 23,3 C 49 % 1014,0 hPa 0,0 l/m 2 min 0 min 587 W/m 16,1 km/h (3 Bft) 97,92 %
28.07.2020 17:04 24,1 C 23,9 C 22,8 C 50 % 1014,0 hPa 0,0 l/m 0 min 0 min 202 W/m 12,9 km/h (3 Bft) 97,83 %
28.07.2020 17:06 24,1 C 23,3 C 22,8 C 50 % 1013,9 hPa 0,0 l/m 0 min 0 min 208 W/m 12,9 km/h (3 Bft) 97,87 %
28.07.2020 17:08 23,9 C 22,8 C 22,2 C 50 % 1014,0 hPa 0,0 l/m 0 min 0 min 229 W/m 19,3 km/h (3 Bft) 97,87 %
28.07.2020 17:10 23,9 C 22,8 C 22,2 C 49 % 1013,9 hPa 0,0 l/m 0 min 0 min 212 W/m 19,3 km/h (3 Bft) 97,87 %
28.07.2020 17:12 23,8 C 22,8 C 22,2 C 50 % 1014,0 hPa 0,0 l/m 0 min 0 min 223 W/m 19,3 km/h (3 Bft) 97,92 %
28.07.2020 17:14 23,7 C 22,8 C 22,2 C 50 % 1013,9 hPa 0,0 l/m 0 min 0 min 233 W/m 12,9 km/h (3 Bft) 97,87 %
28.07.2020 17:16 23,6 C 22,8 C 22,2 C 50 % 1013,9 hPa 0,0 l/m 0 min 0 min 243 W/m 22,5 km/h (4 Bft) 97,83 %
28.07.2020 17:18 23,5 C 22,8 C 22,2 C 51 % 1013,9 hPa 0,0 l/m 0 min 0 min 223 W/m 16,1 km/h (3 Bft) 95,74 %
28.07.2020 17:20 23,4 C 22,8 C 22,2 C 51 % 1013,9 hPa 0,0 l/m 0 min 0 min 193 W/m 16,1 km/h (3 Bft) 97,87 %
28.07.2020 17:22 23,4 C 22,8 C 22,2 C 51 % 1013,9 hPa 0,0 l/m 0 min 0 min 180 W/m 12,9 km/h (3 Bft) 97,87 %
28.07.2020 17:24 23,3 C 22,8 C 22,2 C 51 % 1013,9 hPa 0,0 l/m 0 min 0 min 217 W/m 12,9 km/h (3 Bft) 97,87 %
28.07.2020 17:26 23,3 C 22,8 C 22,2 C 52 % 1013,9 hPa 0,0 l/m 0 min 0 min 223 W/m 6,4 km/h (2 Bft) 97,83 %
28.07.2020 17:28 23,2 C 23,3 C 22,2 C 52 % 1013,9 hPa 0,0 l/m 0 min 0 min 221 W/m 12,9 km/h (3 Bft) 97,87 %
28.07.2020 17:30 23,2 C 25,6 C 22,8 C 53 % 1013,9 hPa 0,0 l/m 2 min 0 min 557 W/m 12,9 km/h (3 Bft) 97,87 %
28.07.2020 17:32 23,3 C 25,0 C 22,8 C 52 % 1014,0 hPa 0,0 l/m 2 min 0 min 578 W/m 12,9 km/h (3 Bft) 97,96 %
28.07.2020 17:34 23,3 C 23,9 C 22,8 C 52 % 1014,0 hPa 0,0 l/m 0 min 0 min 222 W/m 16,1 km/h (3 Bft) 97,87 %
28.07.2020 17:36 23,3 C 25,6 C 22,8 C 53 % 1013,9 hPa 0,0 l/m 0 min 0 min 227 W/m 6,4 km/h (2 Bft) 91,49 %
28.07.2020 17:38 23,4 C 26,7 C 22,8 C 54 % 1013,9 hPa 0,0 l/m 2 min 0 min 635 W/m 9,7 km/h (2 Bft) 95,65 %
28.07.2020 17:40 23,5 C 27,2 C 23,3 C 54 % 1014,0 hPa 0,0 l/m 2 min 0 min 729 W/m 9,7 km/h (2 Bft) 97,87 %
28.07.2020 17:42 23,6 C 27,2 C 23,3 C 53 % 1014,0 hPa 0,0 l/m 2 min 0 min 720 W/m 12,9 km/h (3 Bft) 94,44 %
28.07.2020 17:44 23,8 C 27,2 C 23,3 C 52 % 1014,0 hPa 0,0 l/m 2 min 0 min 670 W/m 19,3 km/h (3 Bft) 95,74 %
28.07.2020 17:46 23,9 C 26,1 C 23,9 C 52 % 1014,0 hPa 0,0 l/m 2 min 0 min 666 W/m 9,7 km/h (2 Bft) 95,74 %
28.07.2020 17:48 23,9 C 24,4 C 23,3 C 52 % 1014,0 hPa 0,0 l/m 2 min 0 min 335 W/m 12,9 km/h (3 Bft) 93,62 %
28.07.2020 17:50 24,0 C 23,9 C 22,8 C 53 % 1014,1 hPa 0,0 l/m 0 min 0 min 167 W/m 9,7 km/h (2 Bft) 100,00 %
28.07.2020 17:52 24,0 C 23,3 C 22,8 C 53 % 1014,0 hPa 0,0 l/m 0 min 0 min 156 W/m 12,9 km/h (3 Bft) 100,00 %
28.07.2020 17:54 23,9 C 22,8 C 22,2 C 52 % 1014,0 hPa 0,0 l/m 0 min 0 min 152 W/m 16,1 km/h (3 Bft) 95,74 %
28.07.2020 17:56 23,9 C 22,8 C 22,2 C 52 % 1014,1 hPa 0,0 l/m 0 min 0 min 134 W/m 16,1 km/h (3 Bft) 97,87 %
28.07.2020 17:58 23,8 C 22,2 C 22,2 C 51 % 1014,1 hPa 0,0 l/m 0 min 0 min 117 W/m 9,7 km/h (2 Bft) 97,87 %
28.07.2020 18:00 23,8 C 22,2 C 21,7 C 52 % 1014,1 hPa 0,0 l/m 0 min 0 min 103 W/m 12,9 km/h (3 Bft) 97,87 %
28.07.2020 18:02 23,6 C 22,2 C 21,7 C 52 % 1014,1 hPa 0,0 l/m 0 min 0 min 99 W/m 12,9 km/h (3 Bft) 95,74 %
28.07.2020 18:04 23,6 C 21,7 C 21,7 C 53 % 1014,2 hPa 0,0 l/m 0 min 0 min 104 W/m 6,4 km/h (2 Bft) 97,83 %
28.07.2020 18:08 23,4 C 21,7 C 21,7 C 54 % 1014,2 hPa 0,0 l/m 0 min 0 min 112 W/m 12,9 km/h (3 Bft) 97,00 %
28.07.2020 18:10 23,3 C 22,2 C 21,7 C 54 % 1014,2 hPa 0,0 l/m 0 min 0 min 168 W/m 6,4 km/h (2 Bft) 98,08 %
28.07.2020 18:12 23,3 C 24,4 C 21,7 C 55 % 1014,2 hPa 0,0 l/m 2 min 0 min 321 W/m 6,4 km/h (2 Bft) 95,65 %
28.07.2020 18:14 23,3 C 23,9 C 21,7 C 55 % 1014,1 hPa 0,0 l/m 2 min 0 min 444 W/m 9,7 km/h (2 Bft) 97,87 %
28.07.2020 18:16 23,3 C 23,3 C 21,7 C 55 % 1014,2 hPa 0,0 l/m 0 min 0 min 189 W/m 12,9 km/h (3 Bft) 95,74 %
28.07.2020 18:18 23,2 C 23,3 C 21,7 C 55 % 1014,2 hPa 0,0 l/m 0 min 0 min 153 W/m 9,7 km/h (2 Bft) 97,87 %
28.07.2020 18:20 23,2 C 23,3 C 21,7 C 54 % 1014,1 hPa 0,0 l/m 2 min 0 min 348 W/m 22,5 km/h (4 Bft) 97,87 %
28.07.2020 18:22 23,2 C 23,3 C 21,7 C 54 % 1014,2 hPa 0,0 l/m 0 min 0 min 139 W/m 12,9 km/h (3 Bft) 100,00 %
28.07.2020 18:24 23,2 C 24,4 C 21,7 C 55 % 1014,3 hPa 0,0 l/m 2 min 0 min 430 W/m 16,1 km/h (3 Bft) 95,74 %
28.07.2020 18:26 23,2 C 23,3 C 21,7 C 56 % 1014,2 hPa 0,0 l/m 2 min 0 min 377 W/m 12,9 km/h (3 Bft) 96,15 %
28.07.2020 18:28 23,2 C 22,8 C 21,7 C 56 % 1014,2 hPa 0,0 l/m 0 min 0 min 151 W/m 12,9 km/h (3 Bft) 97,87 %
28.07.2020 18:30 23,2 C 22,8 C 21,7 C 56 % 1014,2 hPa 0,0 l/m 0 min 0 min 138 W/m 19,3 km/h (3 Bft) 95,74 %
28.07.2020 18:32 23,2 C 22,2 C 21,7 C 56 % 1014,3 hPa 0,0 l/m 0 min 0 min 141 W/m 25,7 km/h (4 Bft) 97,92 %
28.07.2020 18:34 23,1 C 22,2 C 21,1 C 56 % 1014,3 hPa 0,0 l/m 0 min 0 min 140 W/m 6,4 km/h (2 Bft) 95,83 %
28.07.2020 18:36 23,0 C 21,7 C 21,1 C 56 % 1014,3 hPa 0,0 l/m 0 min 0 min 141 W/m 22,5 km/h (4 Bft) 95,74 %
28.07.2020 18:38 22,9 C 22,2 C 21,1 C 57 % 1014,3 hPa 0,0 l/m 0 min 0 min 150 W/m 9,7 km/h (2 Bft) 97,83 %
28.07.2020 18:40 22,9 C 22,2 C 21,1 C 57 % 1014,3 hPa 0,0 l/m 0 min 0 min 169 W/m 12,9 km/h (3 Bft) 95,74 %
28.07.2020 18:42 22,8 C 22,8 C 21,1 C 58 % 1014,3 hPa 0,0 l/m 2 min 0 min 404 W/m 19,3 km/h (3 Bft) 95,74 %
28.07.2020 18:44 22,8 C 22,8 C 21,1 C 57 % 1014,4 hPa 0,0 l/m 2 min 0 min 428 W/m 9,7 km/h (2 Bft) 95,74 %
28.07.2020 18:46 22,8 C 22,2 C 21,1 C 57 % 1014,3 hPa 0,0 l/m 2 min 0 min 225 W/m 12,9 km/h (3 Bft) 95,74 %
28.07.2020 18:48 22,7 C 21,7 C 21,1 C 57 % 1014,5 hPa 0,0 l/m 0 min 0 min 102 W/m 9,7 km/h (2 Bft) 95,74 %
28.07.2020 18:50 22,7 C 21,7 C 21,1 C 57 % 1014,4 hPa 0,0 l/m 0 min 0 min 80 W/m 19,3 km/h (3 Bft) 93,48 %
28.07.2020 18:52 22,6 C 21,1 C 21,1 C 58 % 1014,4 hPa 0,0 l/m 0 min 0 min 79 W/m 6,4 km/h (2 Bft) 95,74 %
28.07.2020 18:54 22,6 C 21,1 C 20,6 C 58 % 1014,4 hPa 0,0 l/m 0 min 0 min 91 W/m 9,7 km/h (2 Bft) 95,74 %
28.07.2020 18:56 22,5 C 21,1 C 20,6 C 59 % 1014,4 hPa 0,0 l/m 0 min 0 min 113 W/m 9,7 km/h (2 Bft) 93,62 %
28.07.2020 18:58 22,4 C 22,2 C 20,6 C 60 % 1014,4 hPa 0,0 l/m 2 min 0 min 187 W/m 12,9 km/h (3 Bft) 97,92 %
28.07.2020 19:00 22,4 C 22,8 C 21,1 C 60 % 1014,5 hPa 0,0 l/m 2 min 0 min 408 W/m 16,1 km/h (3 Bft) 97,83 %
28.07.2020 19:02 22,4 C 23,3 C 21,1 C 61 % 1014,5 hPa 0,0 l/m 2 min 0 min 401 W/m 9,7 km/h (2 Bft) 97,92 %
28.07.2020 19:04 22,5 C 23,3 C 21,1 C 61 % 1014,5 hPa 0,0 l/m 2 min 0 min 370 W/m 12,9 km/h (3 Bft) 97,87 %
28.07.2020 19:06 22,5 C 23,3 C 21,1 C 61 % 1014,6 hPa 0,0 l/m 2 min 0 min 348 W/m 12,9 km/h (3 Bft) 97,87 %
28.07.2020 19:08 22,6 C 23,3 C 21,1 C 61 % 1014,6 hPa 0,0 l/m 2 min 0 min 336 W/m 9,7 km/h (2 Bft) 97,87 %
28.07.2020 19:10 22,6 C 22,8 C 21,1 C 61 % 1014,6 hPa 0,0 l/m 2 min 0 min 281 W/m 16,1 km/h (3 Bft) 95,74 %
28.07.2020 19:12 22,6 C 22,2 C 20,6 C 62 % 1014,6 hPa 0,0 l/m 0 min 0 min 100 W/m 6,4 km/h (2 Bft) 95,74 %
28.07.2020 19:14 22,6 C 21,7 C 20,6 C 62 % 1014,6 hPa 0,0 l/m 0 min 0 min 131 W/m 9,7 km/h (2 Bft) 97,87 %
28.07.2020 19:16 22,6 C 21,1 C 20,0 C 63 % 1014,7 hPa 0,0 l/m 0 min 0 min 140 W/m 9,7 km/h (2 Bft) 97,87 %
28.07.2020 19:18 22,5 C 21,1 C 20,0 C 62 % 1014,7 hPa 0,0 l/m 0 min 0 min 149 W/m 6,4 km/h (2 Bft) 97,92 %
28.07.2020 19:20 22,4 C 21,1 C 20,0 C 61 % 1014,7 hPa 0,0 l/m 0 min 0 min 103 W/m 16,1 km/h (3 Bft) 97,14 %
28.07.2020 19:22 22,4 C 21,1 C 20,0 C 62 % 1014,7 hPa 0,0 l/m 0 min 0 min 101 W/m 6,4 km/h (2 Bft) 97,87 %
28.07.2020 19:24 22,3 C 21,1 C 20,0 C 62 % 1014,6 hPa 0,0 l/m 0 min 0 min 98 W/m 6,4 km/h (2 Bft) 97,87 %
28.07.2020 19:26 22,3 C 20,6 C 20,0 C 62 % 1014,7 hPa 0,0 l/m 0 min 0 min 91 W/m 6,4 km/h (2 Bft) 100,00 %
28.07.2020 19:28 22,2 C 20,6 C 20,0 C 62 % 1014,7 hPa 0,0 l/m 0 min 0 min 79 W/m 6,4 km/h (2 Bft) 100,00 %
28.07.2020 19:30 22,2 C 20,6 C 20,0 C 62 % 1014,7 hPa 0,0 l/m 0 min 0 min 69 W/m 6,4 km/h (2 Bft) 100,00 %
28.07.2020 19:32 22,1 C 20,6 C 20,0 C 63 % 1014,6 hPa 0,0 l/m 0 min 0 min 67 W/m 6,4 km/h (2 Bft) 100,00 %
28.07.2020 19:34 22,1 C 20,6 C 20,0 C 62 % 1014,7 hPa 0,0 l/m 0 min 0 min 66 W/m 6,4 km/h (2 Bft) 97,87 %
28.07.2020 19:36 22,0 C 20,0 C 20,0 C 63 % 1014,6 hPa 0,0 l/m 0 min 0 min 60 W/m 3,2 km/h (1 Bft) 100,00 %
28.07.2020 19:38 21,9 C 20,0 C 20,0 C 63 % 1014,7 hPa 0,0 l/m 0 min 0 min 54 W/m 6,4 km/h (2 Bft) 96,23 %
28.07.2020 19:40 21,9 C 20,0 C 20,0 C 63 % 1014,7 hPa 0,0 l/m 0 min 0 min 45 W/m 6,4 km/h (2 Bft) 95,83 %
28.07.2020 19:42 21,8 C 20,0 C 19,4 C 64 % 1014,8 hPa 0,0 l/m 0 min 0 min 45 W/m 9,7 km/h (2 Bft) 95,74 %
28.07.2020 19:44 21,7 C 20,0 C 19,4 C 63 % 1014,8 hPa 0,0 l/m 0 min 0 min 50 W/m 6,4 km/h (2 Bft) 95,74 %
28.07.2020 19:46 21,7 C 20,0 C 19,4 C 64 % 1014,8 hPa 0,0 l/m 0 min 0 min 51 W/m 6,4 km/h (2 Bft) 97,87 %
28.07.2020 19:48 21,6 C 20,0 C 19,4 C 64 % 1014,8 hPa 0,0 l/m 0 min 0 min 47 W/m 6,4 km/h (2 Bft) 97,83 %
28.07.2020 19:50 21,6 C 20,0 C 19,4 C 64 % 1014,8 hPa 0,0 l/m 0 min 0 min 56 W/m 6,4 km/h (2 Bft) 97,87 %
28.07.2020 19:52 21,5 C 20,0 C 19,4 C 64 % 1014,8 hPa 0,0 l/m 0 min 0 min 72 W/m 6,4 km/h (2 Bft) 97,87 %
28.07.2020 19:54 21,4 C 20,0 C 19,4 C 64 % 1014,8 hPa 0,0 l/m 0 min 0 min 87 W/m 6,4 km/h (2 Bft) 97,87 %
28.07.2020 19:56 21,4 C 20,6 C 20,0 C 65 % 1014,8 hPa 0,0 l/m 0 min 0 min 89 W/m 9,7 km/h (2 Bft) 95,74 %
28.07.2020 19:58 21,3 C 20,6 C 20,0 C 64 % 1014,9 hPa 0,0 l/m 0 min 0 min 88 W/m 9,7 km/h (2 Bft) 97,83 %
28.07.2020 20:00 21,3 C 20,6 C 20,0 C 65 % 1014,9 hPa 0,0 l/m 0 min 0 min 78 W/m 9,7 km/h (2 Bft) 95,74 %
28.07.2020 20:02 21,3 C 20,0 C 19,4 C 64 % 1014,9 hPa 0,0 l/m 0 min 0 min 74 W/m 9,7 km/h (2 Bft) 97,96 %
28.07.2020 20:04 21,2 C 20,0 C 20,0 C 64 % 1014,9 hPa 0,0 l/m 0 min 0 min 69 W/m 9,7 km/h (2 Bft) 95,74 %
28.07.2020 20:06 21,2 C 20,0 C 19,4 C 63 % 1014,9 hPa 0,0 l/m 0 min 0 min 68 W/m 9,7 km/h (2 Bft) 97,87 %
28.07.2020 20:08 21,2 C 20,6 C 19,4 C 64 % 1014,9 hPa 0,0 l/m 0 min 0 min 73 W/m 12,9 km/h (3 Bft) 97,87 %
28.07.2020 20:09 21,1 C 20,6 C 20,0 C 64 % 1014,9 hPa 0,0 l/m 1 min 0 min 90 W/m 9,7 km/h (2 Bft) 97,87 %
28.07.2020 20:12 21,1 C 20,6 C 20,0 C 64 % 1015,1 hPa 0,0 l/m 3 min 0 min 118 W/m 12,9 km/h (3 Bft) 95,56 %
28.07.2020 20:14 21,1 C 20,6 C 20,0 C 64 % 1015,0 hPa 0,0 l/m 2 min 0 min 106 W/m 12,9 km/h (3 Bft) 95,74 %
28.07.2020 20:16 21,1 C 20,6 C 20,0 C 63 % 1015,0 hPa 0,0 l/m 0 min 0 min 70 W/m 9,7 km/h (2 Bft) 97,87 %
28.07.2020 20:18 21,1 C 20,0 C 20,0 C 63 % 1015,0 hPa 0,0 l/m 0 min 0 min 49 W/m 12,9 km/h (3 Bft) 97,87 %
28.07.2020 20:20 21,1 C 20,0 C 19,4 C 63 % 1015,0 hPa 0,0 l/m 0 min 0 min 37 W/m 19,3 km/h (3 Bft) 97,87 %
28.07.2020 20:22 21,0 C 19,4 C 19,4 C 64 % 1015,1 hPa 0,0 l/m 0 min 0 min 30 W/m 12,9 km/h (3 Bft) 100,00 %
28.07.2020 20:24 20,9 C 19,4 C 19,4 C 64 % 1015,1 hPa 0,0 l/m 0 min 0 min 26 W/m 9,7 km/h (2 Bft) 97,87 %
28.07.2020 20:26 20,9 C 19,4 C 18,9 C 64 % 1015,1 hPa 0,0 l/m 0 min 0 min 27 W/m 9,7 km/h (2 Bft) 97,87 %
28.07.2020 20:28 20,8 C 18,9 C 18,9 C 64 % 1015,2 hPa 0,0 l/m 0 min 0 min 28 W/m 9,7 km/h (2 Bft) 100,00 %
28.07.2020 20:30 20,8 C 18,9 C 18,9 C 64 % 1015,3 hPa 0,0 l/m 0 min 0 min 29 W/m 9,7 km/h (2 Bft) 100,00 %
28.07.2020 20:32 20,7 C 18,9 C 18,9 C 65 % 1015,3 hPa 0,0 l/m 0 min 0 min 30 W/m 6,4 km/h (2 Bft) 100,00 %
28.07.2020 20:34 20,7 C 18,9 C 18,9 C 65 % 1015,4 hPa 0,0 l/m 0 min 0 min 32 W/m 16,1 km/h (3 Bft) 97,87 %
28.07.2020 20:36 20,6 C 18,9 C 18,9 C 65 % 1015,4 hPa 0,0 l/m 0 min 0 min 32 W/m 16,1 km/h (3 Bft) 100,00 %
28.07.2020 20:38 20,5 C 18,9 C 18,9 C 65 % 1015,5 hPa 0,0 l/m 0 min 0 min 34 W/m 9,7 km/h (2 Bft) 100,00 %
28.07.2020 20:40 20,4 C 18,9 C 18,9 C 66 % 1015,5 hPa 0,0 l/m 0 min 0 min 38 W/m 9,7 km/h (2 Bft) 100,00 %
28.07.2020 20:42 20,4 C 18,9 C 18,9 C 66 % 1015,5 hPa 0,0 l/m 0 min 0 min 44 W/m 12,9 km/h (3 Bft) 100,00 %
28.07.2020 20:44 20,3 C 18,9 C 18,9 C 66 % 1015,5 hPa 0,0 l/m 2 min 0 min 48 W/m 16,1 km/h (3 Bft) 100,00 %
28.07.2020 20:46 20,3 C 18,9 C 18,9 C 66 % 1015,5 hPa 0,0 l/m 0 min 0 min 40 W/m 12,9 km/h (3 Bft) 97,87 %
28.07.2020 20:48 20,2 C 18,9 C 18,9 C 67 % 1015,5 hPa 0,0 l/m 0 min 0 min 31 W/m 9,7 km/h (2 Bft) 100,00 %
28.07.2020 20:50 20,2 C 18,9 C 18,3 C 67 % 1015,5 hPa 0,0 l/m 0 min 0 min 26 W/m 6,4 km/h (2 Bft) 97,87 %
28.07.2020 20:52 20,1 C 18,3 C 18,3 C 67 % 1015,6 hPa 0,0 l/m 0 min 0 min 22 W/m 6,4 km/h (2 Bft) 97,87 %
28.07.2020 20:54 20,1 C 18,3 C 18,3 C 68 % 1015,6 hPa 0,0 l/m 0 min 0 min 18 W/m 6,4 km/h (2 Bft) 97,87 %
28.07.2020 20:56 20,1 C 18,3 C 18,3 C 68 % 1015,6 hPa 0,0 l/m 0 min 0 min 17 W/m 6,4 km/h (2 Bft) 97,83 %
28.07.2020 20:58 20,1 C 18,3 C 18,3 C 68 % 1015,7 hPa 0,0 l/m 0 min 0 min 15 W/m 6,4 km/h (2 Bft) 100,00 %
28.07.2020 21:00 19,9 C 17,8 C 17,8 C 68 % 1015,7 hPa 0,0 l/m 0 min 0 min 14 W/m 6,4 km/h (2 Bft) 97,87 %
28.07.2020 21:02 19,9 C 17,8 C 17,8 C 68 % 1015,7 hPa 0,0 l/m 0 min 0 min 12 W/m 6,4 km/h (2 Bft) 100,00 %
28.07.2020 21:04 19,8 C 17,8 C 17,8 C 69 % 1015,7 hPa 0,0 l/m 0 min 0 min 12 W/m 12,9 km/h (3 Bft) 100,00 %
28.07.2020 21:06 19,7 C 17,8 C 17,8 C 69 % 1015,8 hPa 0,0 l/m 0 min 0 min 11 W/m 6,4 km/h (2 Bft) 100,00 %
28.07.2020 21:08 19,7 C 17,8 C 17,8 C 69 % 1015,9 hPa 0,0 l/m 0 min 0 min 11 W/m 9,7 km/h (2 Bft) 97,83 %
28.07.2020 21:10 19,6 C 17,8 C 17,8 C 69 % 1015,9 hPa 0,0 l/m 0 min 0 min 11 W/m 6,4 km/h (2 Bft) 95,74 %
28.07.2020 21:12 19,6 C 17,8 C 17,8 C 69 % 1015,9 hPa 0,0 l/m 0 min 0 min 10 W/m 16,1 km/h (3 Bft) 95,74 %
28.07.2020 21:14 19,4 C 17,8 C 17,8 C 69 % 1015,9 hPa 0,0 l/m 0 min 0 min 8 W/m 9,7 km/h (2 Bft) 97,67 %
28.07.2020 21:16 19,4 C 17,8 C 17,8 C 69 % 1016,0 hPa 0,0 l/m 0 min 0 min 7 W/m 6,4 km/h (2 Bft) 97,87 %
28.07.2020 21:18 19,3 C 17,8 C 17,8 C 69 % 1016,1 hPa 0,0 l/m 0 min 0 min 5 W/m 9,7 km/h (2 Bft) 97,87 %
28.07.2020 21:20 19,3 C 17,2 C 17,8 C 69 % 1016,1 hPa 0,0 l/m 0 min 0 min 5 W/m 12,9 km/h (3 Bft) 97,83 %
28.07.2020 21:22 19,2 C 17,2 C 17,8 C 70 % 1016,1 hPa 0,0 l/m 0 min 0 min 5 W/m 6,4 km/h (2 Bft) 97,87 %
28.07.2020 21:24 19,2 C 17,2 C 17,8 C 70 % 1016,1 hPa 0,0 l/m 0 min 0 min 2 W/m 6,4 km/h (2 Bft) 97,87 %
28.07.2020 21:26 19,2 C 17,2 C 17,8 C 70 % 1016,2 hPa 0,0 l/m 0 min 0 min 0 W/m 6,4 km/h (2 Bft) 97,87 %
28.07.2020 21:28 19,1 C 17,2 C 17,2 C 70 % 1016,2 hPa 0,0 l/m 0 min 0 min 0 W/m 9,7 km/h (2 Bft) 97,87 %
28.07.2020 21:30 19,1 C 17,2 C 17,2 C 70 % 1016,2 hPa 0,0 l/m 0 min 0 min 0 W/m 3,2 km/h (1 Bft) 97,87 %
28.07.2020 21:32 19,1 C 17,2 C 17,2 C 71 % 1016,3 hPa 0,0 l/m 0 min 0 min 0 W/m 6,4 km/h (2 Bft) 97,92 %
28.07.2020 21:34 19,0 C 17,2 C 17,2 C 71 % 1016,3 hPa 0,0 l/m 0 min 0 min 0 W/m 6,4 km/h (2 Bft) 97,87 %
28.07.2020 21:36 18,9 C 16,7 C 17,2 C 71 % 1016,3 hPa 0,0 l/m 0 min 0 min 0 W/m 6,4 km/h (2 Bft) 97,87 %
28.07.2020 21:38 18,9 C 16,7 C 17,2 C 71 % 1016,3 hPa 0,0 l/m 0 min 0 min 0 W/m 6,4 km/h (2 Bft) 97,87 %
28.07.2020 21:40 18,8 C 16,7 C 17,2 C 71 % 1016,4 hPa 0,0 l/m 0 min 0 min 0 W/m 3,2 km/h (1 Bft) 97,87 %
28.07.2020 21:42 18,8 C 16,7 C 16,7 C 71 % 1016,4 hPa 0,0 l/m 0 min 0 min 0 W/m 9,7 km/h (2 Bft) 95,65 %
28.07.2020 21:44 18,7 C 16,7 C 16,7 C 71 % 1016,4 hPa 0,0 l/m 0 min 0 min 0 W/m 9,7 km/h (2 Bft) 97,87 %
28.07.2020 21:46 18,7 C 16,7 C 16,7 C 71 % 1016,4 hPa 0,0 l/m 0 min 0 min 0 W/m 16,1 km/h (3 Bft) 97,87 %
28.07.2020 21:48 18,6 C 16,7 C 16,7 C 71 % 1016,5 hPa 0,0 l/m 0 min 0 min 0 W/m 6,4 km/h (2 Bft) 95,74 %
28.07.2020 21:50 18,5 C 16,7 C 16,7 C 71 % 1016,5 hPa 0,0 l/m 0 min 0 min 0 W/m 12,9 km/h (3 Bft) 97,87 %
28.07.2020 21:52 18,4 C 16,7 C 16,7 C 71 % 1016,5 hPa 0,0 l/m 0 min 0 min 0 W/m 6,4 km/h (2 Bft) 93,62 %
28.07.2020 21:54 18,4 C 16,7 C 16,7 C 72 % 1016,5 hPa 0,0 l/m 0 min 0 min 0 W/m 12,9 km/h (3 Bft) 93,62 %
28.07.2020 21:56 18,3 C 16,7 C 16,7 C 71 % 1016,5 hPa 0,0 l/m 0 min 0 min 0 W/m 6,4 km/h (2 Bft) 95,65 %
28.07.2020 21:58 18,3 C 16,7 C 16,7 C 72 % 1016,5 hPa 0,0 l/m 0 min 0 min 0 W/m 3,2 km/h (1 Bft) 95,74 %
28.07.2020 22:00 18,2 C 16,7 C 16,7 C 72 % 1016,5 hPa 0,0 l/m 0 min 0 min 0 W/m 3,2 km/h (1 Bft) 97,87 %
28.07.2020 22:02 18,2 C 16,7 C 16,7 C 72 % 1016,5 hPa 0,0 l/m 0 min 0 min 0 W/m 3,2 km/h (1 Bft) 97,92 %
28.07.2020 22:04 18,2 C 16,7 C 16,7 C 72 % 1016,6 hPa 0,0 l/m 0 min 0 min 0 W/m 3,2 km/h (1 Bft) 95,74 %
28.07.2020 22:06 18,1 C 16,7 C 16,7 C 72 % 1016,6 hPa 0,0 l/m 0 min 0 min 0 W/m 3,2 km/h (1 Bft) 97,83 %
28.07.2020 22:08 18,1 C 16,1 C 16,7 C 72 % 1016,6 hPa 0,0 l/m 0 min 0 min 0 W/m 6,4 km/h (2 Bft) 100,00 %
28.07.2020 22:10 18,1 C 16,7 C 16,7 C 72 % 1016,6 hPa 0,0 l/m 0 min 0 min 0 W/m 3,2 km/h (1 Bft) 97,87 %
28.07.2020 22:12 18,1 C 16,1 C 16,7 C 72 % 1016,7 hPa 0,0 l/m 0 min 0 min 0 W/m 3,2 km/h (1 Bft) 97,87 %
28.07.2020 22:14 18,0 C 16,7 C 16,7 C 72 % 1016,7 hPa 0,0 l/m 0 min 0 min 0 W/m 3,2 km/h (1 Bft) 97,87 %
28.07.2020 22:16 18,0 C 16,7 C 16,7 C 72 % 1016,7 hPa 0,0 l/m 0 min 0 min 0 W/m 3,2 km/h (1 Bft) 95,74 %
28.07.2020 22:18 17,9 C 16,7 C 16,7 C 73 % 1016,7 hPa 0,0 l/m 0 min 0 min 0 W/m 3,2 km/h (1 Bft) 97,83 %
28.07.2020 22:20 17,9 C 16,7 C 16,7 C 73 % 1016,7 hPa 0,0 l/m 0 min 0 min 0 W/m 3,2 km/h (1 Bft) 95,74 %
28.07.2020 22:22 17,9 C 16,7 C 16,7 C 73 % 1016,7 hPa 0,0 l/m 0 min 0 min 0 W/m 6,4 km/h (2 Bft) 97,87 %
28.07.2020 22:24 17,9 C 16,7 C 16,7 C 73 % 1016,8 hPa 0,0 l/m 0 min 0 min 0 W/m 6,4 km/h (2 Bft) 95,74 %
28.07.2020 22:26 17,8 C 16,7 C 16,7 C 73 % 1016,8 hPa 0,0 l/m 0 min 0 min 0 W/m 3,2 km/h (1 Bft) 95,74 %
28.07.2020 22:28 17,8 C 16,7 C 16,7 C 73 % 1016,9 hPa 0,0 l/m 0 min 0 min 0 W/m 3,2 km/h (1 Bft) 93,62 %
28.07.2020 22:30 17,8 C 16,7 C 16,7 C 73 % 1016,9 hPa 0,0 l/m 0 min 0 min 0 W/m 3,2 km/h (1 Bft) 93,48 %
28.07.2020 22:32 17,8 C 16,7 C 16,7 C 73 % 1016,9 hPa 0,0 l/m 0 min 0 min 0 W/m 3,2 km/h (1 Bft) 93,75 %
28.07.2020 22:34 17,8 C 16,7 C 16,7 C 73 % 1016,8 hPa 0,0 l/m 0 min 0 min 0 W/m 6,4 km/h (2 Bft) 97,87 %
28.07.2020 22:36 17,8 C 16,7 C 16,7 C 73 % 1016,9 hPa 0,0 l/m 0 min 0 min 0 W/m 3,2 km/h (1 Bft) 95,74 %
28.07.2020 22:38 17,8 C 16,7 C 16,7 C 73 % 1016,9 hPa 0,0 l/m 0 min 0 min 0 W/m 3,2 km/h (1 Bft) 95,74 %
28.07.2020 22:40 17,7 C 16,7 C 16,7 C 73 % 1016,9 hPa 0,0 l/m 0 min 0 min 0 W/m 6,4 km/h (2 Bft) 95,74 %
28.07.2020 22:42 17,7 C 16,7 C 16,7 C 73 % 1016,9 hPa 0,0 l/m 0 min 0 min 0 W/m 6,4 km/h (2 Bft) 93,48 %
28.07.2020 22:44 17,7 C 16,7 C 16,7 C 73 % 1017,0 hPa 0,0 l/m 0 min 0 min 0 W/m 6,4 km/h (2 Bft) 95,74 %
28.07.2020 22:46 17,7 C 16,7 C 16,7 C 72 % 1017,0 hPa 0,0 l/m 0 min 0 min 0 W/m 3,2 km/h (1 Bft) 95,74 %
28.07.2020 22:48 17,7 C 16,7 C 16,7 C 72 % 1016,9 hPa 0,0 l/m 0 min 0 min 0 W/m 3,2 km/h (1 Bft) 93,62 %
28.07.2020 22:50 17,7 C 16,7 C 16,7 C 72 % 1017,0 hPa 0,0 l/m 0 min 0 min 0 W/m 3,2 km/h (1 Bft) 95,74 %
28.07.2020 22:52 17,7 C 16,7 C 16,7 C 72 % 1017,0 hPa 0,0 l/m 0 min 0 min 0 W/m 9,7 km/h (2 Bft) 95,65 %
28.07.2020 22:54 17,6 C 16,7 C 16,7 C 72 % 1017,0 hPa 0,0 l/m 0 min 0 min 0 W/m 3,2 km/h (1 Bft) 95,74 %
28.07.2020 22:56 17,6 C 16,7 C 16,7 C 72 % 1017,0 hPa 0,0 l/m 0 min 0 min 0 W/m 6,4 km/h (2 Bft) 95,74 %
28.07.2020 22:58 17,6 C 16,7 C 16,7 C 72 % 1017,0 hPa 0,0 l/m 0 min 0 min 0 W/m 3,2 km/h (1 Bft) 95,74 %
28.07.2020 23:00 17,6 C 16,7 C 16,7 C 72 % 1017,0 hPa 0,0 l/m 0 min 0 min 0 W/m 6,4 km/h (2 Bft) 95,74 %
28.07.2020 23:02 17,6 C 16,7 C 16,7 C 72 % 1017,0 hPa 0,0 l/m 0 min 0 min 0 W/m 3,2 km/h (1 Bft) 97,92 %
28.07.2020 23:04 17,6 C 16,7 C 16,7 C 72 % 1017,0 hPa 0,0 l/m 0 min 0 min 0 W/m 9,7 km/h (2 Bft) 95,65 %
28.07.2020 23:06 17,6 C 16,7 C 16,7 C 72 % 1017,0 hPa 0,0 l/m 0 min 0 min 0 W/m 9,7 km/h (2 Bft) 97,87 %
28.07.2020 23:08 17,6 C 16,7 C 16,7 C 72 % 1017,0 hPa 0,0 l/m 0 min 0 min 0 W/m 3,2 km/h (1 Bft) 95,74 %
28.07.2020 23:10 17,6 C 16,7 C 16,7 C 72 % 1017,0 hPa 0,0 l/m 0 min 0 min 0 W/m 3,2 km/h (1 Bft) 97,87 %
28.07.2020 23:12 17,6 C 16,7 C 16,7 C 71 % 1017,1 hPa 0,0 l/m 0 min 0 min 0 W/m 9,7 km/h (2 Bft) 97,87 %
28.07.2020 23:14 17,6 C 16,7 C 16,7 C 71 % 1017,1 hPa 0,0 l/m 0 min 0 min 0 W/m 6,4 km/h (2 Bft) 97,87 %
28.07.2020 23:16 17,6 C 16,7 C 16,7 C 71 % 1017,1 hPa 0,0 l/m 0 min 0 min 0 W/m 6,4 km/h (2 Bft) 95,56 %
28.07.2020 23:18 17,6 C 16,7 C 16,7 C 71 % 1017,1 hPa 0,0 l/m 0 min 0 min 0 W/m 6,4 km/h (2 Bft) 100,00 %
28.07.2020 23:20 17,6 C 16,7 C 16,7 C 71 % 1017,1 hPa 0,0 l/m 0 min 0 min 0 W/m 6,4 km/h (2 Bft) 100,00 %
28.07.2020 23:22 17,6 C 16,7 C 16,7 C 70 % 1017,1 hPa 0,0 l/m 0 min 0 min 0 W/m 3,2 km/h (1 Bft) 100,00 %
28.07.2020 23:24 17,5 C 16,7 C 16,7 C 70 % 1017,1 hPa 0,0 l/m 0 min 0 min 0 W/m 6,4 km/h (2 Bft) 97,87 %
28.07.2020 23:26 17,5 C 16,7 C 16,7 C 70 % 1017,1 hPa 0,0 l/m 0 min 0 min 0 W/m 6,4 km/h (2 Bft) 97,87 %
28.07.2020 23:28 17,5 C 16,7 C 16,7 C 70 % 1017,1 hPa 0,0 l/m 0 min 0 min 0 W/m 6,4 km/h (2 Bft) 100,00 %
28.07.2020 23:30 17,5 C 16,7 C 16,7 C 70 % 1017,1 hPa 0,0 l/m 0 min 0 min 0 W/m 6,4 km/h (2 Bft) 100,00 %
28.07.2020 23:32 17,5 C 16,7 C 16,7 C 70 % 1017,1 hPa 0,0 l/m 0 min 0 min 0 W/m 6,4 km/h (2 Bft) 100,00 %
28.07.2020 23:34 17,5 C 16,7 C 16,7 C 70 % 1017,1 hPa 0,0 l/m 0 min 0 min 0 W/m 6,4 km/h (2 Bft) 95,74 %
28.07.2020 23:36 17,5 C 16,7 C 16,7 C 69 % 1017,1 hPa 0,0 l/m 0 min 0 min 0 W/m 3,2 km/h (1 Bft) 97,96 %
28.07.2020 23:38 17,4 C 16,7 C 16,7 C 69 % 1017,0 hPa 0,0 l/m 0 min 0 min 0 W/m 3,2 km/h (1 Bft) 95,65 %
28.07.2020 23:40 17,4 C 16,7 C 16,7 C 69 % 1017,1 hPa 0,0 l/m 0 min 0 min 0 W/m 6,4 km/h (2 Bft) 100,00 %
28.07.2020 23:42 17,4 C 16,1 C 16,7 C 69 % 1017,1 hPa 0,0 l/m 0 min 0 min 0 W/m 6,4 km/h (2 Bft) 100,00 %
28.07.2020 23:44 17,4 C 16,7 C 16,7 C 69 % 1017,1 hPa 0,0 l/m 0 min 0 min 0 W/m 6,4 km/h (2 Bft) 100,00 %
28.07.2020 23:46 17,4 C 16,7 C 16,7 C 69 % 1017,1 hPa 0,0 l/m 0 min 0 min 0 W/m 3,2 km/h (1 Bft) 97,87 %
28.07.2020 23:48 17,4 C 16,7 C 16,7 C 69 % 1017,1 hPa 0,0 l/m 0 min 0 min 0 W/m 6,4 km/h (2 Bft) 97,87 %
28.07.2020 23:50 17,4 C 16,1 C 16,7 C 69 % 1017,1 hPa 0,0 l/m 0 min 0 min 0 W/m 3,2 km/h (1 Bft) 100,00 %
28.07.2020 23:52 17,4 C 16,1 C 16,7 C 69 % 1017,1 hPa 0,0 l/m 0 min 0 min 0 W/m 3,2 km/h (1 Bft) 97,87 %
28.07.2020 23:54 17,4 C 16,1 C 16,7 C 69 % 1017,1 hPa 0,0 l/m 0 min 0 min 0 W/m 3,2 km/h (1 Bft) 95,74 %
28.07.2020 23:56 17,4 C 16,1 C 16,1 C 69 % 1017,1 hPa 0,0 l/m 0 min 0 min 0 W/m 3,2 km/h (1 Bft) 97,87 %
28.07.2020 23:58 17,4 C 16,1 C 16,1 C 69 % 1017,1 hPa 0,0 l/m 0 min 0 min 0 W/m 6,4 km/h (2 Bft) 97,87 %
_ Min-Zeit 23:38 22:08 23:56 17:02 00:00 - - - - 00:38 01:54
Minimum _ 17,4 C 16,1 C 16,1 C 49 % 1007,6 hPa - - - - 0,0 km/h (0 Bft) 60,87 %
_ Max-Zeit 13:50 12:28 10:44 08:02 23:12 00:00 12:08 09:40 13:26 13:18 00:04
Maximum _ 24,8 C 30,0 C 27,2 C 86 % 1017,1 hPa 0,0 l/m 4 min 2 min 1121 W/m 35,4 km/h
O (5 Bft)
100,00 %
Durchschnitt _ 20,9 C 20,9 C 20,0 C 70 % 1012,0 hPa #0,0 l/m #5:08 h #4 min. 326 W/m 11,6 km/h (2 Bft) 97,10 %
© 2020 W. Hausmann